N4ASP-13 Weather Reports


time (UTC)temp
F
wind
direction
speed
knots
gust
knots
rain 1hr
in
rain 24hr
in
rain mn
in
humidity
%
barometer
mb
20260831163630 83 315 0.9 4.3 0.00 0.00 0.00 64 1023.5
20260831163527 83 313 0.9 3.5 0.00 0.00 0.00 66 1023.5
20260831163424 83 333 0.9 3.5 0.00 0.00 0.00 67 1023.5
20260831163325 83 28 0.0 2.6 0.00 0.00 0.00 65 1023.5
20260831163224 83 29 0.0 1.7 0.00 0.00 0.00 64 1023.3
20260831163124 83 29 0.0 0.0 0.00 0.00 0.00 64 1023.3
20260831163017 83 28 0.0 2.6 0.00 0.00 0.00 63 1023.6
20260831162917 84 26 0.0 2.6 0.00 0.00 0.00 63 1023.5
20260831162818 84 48 0.9 3.5 0.00 0.00 0.00 64 1023.5
20260831162715 84 86 0.9 3.5 0.00 0.00 0.00 64 1023.5
20260831162613 84 92 0.9 3.5 0.00 0.00 0.00 64 1023.5
20260831162514 84 95 0.9 3.5 0.00 0.00 0.00 64 1023.6
20260831162411 84 95 0.9 3.5 0.00 0.00 0.00 66 1023.5
20260831162311 84 98 1.7 4.3 0.00 0.00 0.00 65 1023.6
20260831162211 84 87 1.7 4.3 0.00 0.00 0.00 66 1023.5
20260831162107 84 71 1.7 4.3 0.00 0.00 0.00 67 1023.6
20260831162003 84 5 0.9 4.3 0.00 0.00 0.00 65 1023.6
20260831161901 84 52 0.9 4.3 0.00 0.00 0.00 66 1023.6
20260831161803 84 57 0.9 4.3 0.00 0.00 0.00 66 1023.5
20260831161701 84 45 0.9 4.3 0.00 0.00 0.00 69 1023.5
20260831161602 84 120 0.9 4.3 0.00 0.00 0.00 70 1023.5
20260831161454 83 157 0.9 4.3 0.00 0.00 0.00 69 1023.5
20260831161357 83 157 0.9 4.3 0.00 0.00 0.00 69 1023.5
20260831161255 83 49 0.9 3.5 0.00 0.00 0.00 67 1023.5
20260831161155 83 49 0.9 3.5 0.00 0.00 0.00 68 1023.6
20260831161051 83 49 0.9 3.5 0.00 0.00 0.00 68 1023.6
20260831160952 83 49 0.9 3.5 0.00 0.00 0.00 67 1023.5
20260831160850 83 49 1.7 3.5 0.00 0.00 0.00 67 1023.6
20260831160747 83 49 0.9 3.5 0.00 0.00 0.00 66 1023.6
20260831160647 83 49 0.9 3.5 0.00 0.00 0.00 68 1023.6
20260831160546 83 49 0.9 3.5 0.00 0.00 0.00 68 1023.6
20260831160441 83 49 0.9 3.5 0.00 0.00 0.00 69 1023.5
20260831160341 83 49 0.9 3.5 0.00 0.00 0.00 72 1023.5
20260831160241 83 48 0.9 3.5 0.00 0.00 0.00 69 1023.6
20260831160141 83 48 0.9 3.5 0.00 0.00 0.00 70 1023.5
20260831160038 83 49 0.9 3.5 0.00 0.00 0.00 71 1023.5
20260831155930 83 49 0.9 3.5 0.00 0.00 0.00 72 1023.5
20260831155828 83 49 0.0 3.5 0.00 0.00 0.00 72 1023.5
20260831155728 82 49 0.0 1.7 0.00 0.00 0.00 72 1023.5
20260831155628 82 49 0.0 1.7 0.00 0.00 0.00 70 1023.5
20260831155528 82 49 0.0 1.7 0.00 0.00 0.00 71 1023.5
20260831155425 82 49 0.0 1.7 0.00 0.00 0.00 71 1023.5
20260831155326 82 49 0.0 1.7 0.00 0.00 0.00 71 1023.5
20260831155226 82 41 0.0 0.0 0.00 0.00 0.00 73 1023.5
20260831155125 82 344 0.0 0.0 0.00 0.00 0.00 74 1023.5
20260831155022 82 344 0.0 0.0 0.00 0.00 0.00 73 1023.5
20260831154922 82 344 0.0 0.0 0.00 0.00 0.00 75 1023.5
20260831154819 82 344 0.0 0.0 0.00 0.00 0.00 73 1023.5
20260831154719 82 344 0.0 0.0 0.00 0.00 0.00 75 1023.5
20260831154618 82 5 0.0 0.0 0.00 0.00 0.00 77 1023.5
20260831154516 82 15 0.0 0.0 0.00 0.00 0.00 76 1023.5
20260831154405 82 317 0.0 0.0 0.00 0.00 0.00 74 1023.5
20260831154305 81 314 0.0 0.0 0.00 0.00 0.00 73 1023.5
20260831154206 82 290 0.0 0.0 0.00 0.00 0.00 74 1023.5
20260831154106 81 304 0.0 0.0 0.00 0.00 0.00 75 1023.5
20260831154006 81 304 0.0 0.0 0.00 0.00 0.00 73 1023.5
20260831153904 81 304 0.0 0.0 0.00 0.00 0.00 73 1023.3
20260831153803 81 305 0.0 0.0 0.00 0.00 0.00 73 1023.5
20260831153704 81 304 0.0 0.0 0.00 0.00 0.00 73 1023.6
20260831153602 81 305 0.0 0.0 0.00 0.00 0.00 73 1023.5
20260831153500 81 316 0.0 0.0 0.00 0.00 0.00 76 1023.6
20260831153400 81 10 0.0 0.0 0.00 0.00 0.00 75 1023.6
20260831153258 81 11 0.0 0.0 0.00 0.00 0.00 76 1023.6
20260831153155 81 11 0.0 0.0 0.00 0.00 0.00 74 1023.6
20260831153056 81 355 0.0 0.0 0.00 0.00 0.00 74 1023.6
20260831152955 81 337 0.0 0.0 0.00 0.00 0.00 75 1023.6
20260831152847 81 337 0.0 0.0 0.00 0.00 0.00 74 1023.6
20260831152747 81 318 0.0 0.0 0.00 0.00 0.00 75 1023.6
20260831152647 81 335 0.0 0.0 0.00 0.00 0.00 74 1023.6
20260831152545 81 332 0.0 0.0 0.00 0.00 0.00 74 1023.6
20260831152444 81 314 0.0 0.0 0.00 0.00 0.00 74 1023.6
20260831152343 81 314 0.0 0.0 0.00 0.00 0.00 74 1023.5
20260831152242 81 314 0.0 0.0 0.00 0.00 0.00 73 1023.5
20260831152141 81 320 0.0 0.0 0.00 0.00 0.00 77 1023.6
20260831152039 81 350 0.0 0.0 0.00 0.00 0.00 77 1023.6
20260831151938 81 38 0.0 0.0 0.00 0.00 0.00 75 1023.5
20260831151838 81 17 0.0 0.0 0.00 0.00 0.00 74 1023.5
20260831151736 81 5 0.0 0.0 0.00 0.00 0.00 76 1023.5
20260831151635 81 5 0.0 0.0 0.00 0.00 0.00 75 1023.6
20260831151535 81 5 0.0 0.0 0.00 0.00 0.00 75 1023.6
20260831151432 81 325 0.0 0.0 0.00 0.00 0.00 76 1023.6
20260831151325 81 320 0.0 0.0 0.00 0.00 0.00 75 1023.6
20260831151221 81 333 0.0 0.0 0.00 0.00 0.00 76 1023.6
20260831151122 81 342 0.0 0.0 0.00 0.00 0.00 75 1023.5
20260831151021 81 330 0.0 0.0 0.00 0.00 0.00 77 1023.6
20260831150921 81 332 0.0 0.0 0.00 0.00 0.00 76 1023.5
20260831150817 81 327 0.0 0.0 0.00 0.00 0.00 77 1023.5
20260831150715 81 335 0.0 0.0 0.00 0.00 0.00 76 1023.6
20260831150616 81 355 0.0 0.0 0.00 0.00 0.00 76 1023.5
20260831150516 81 10 0.0 0.0 0.00 0.00 0.00 77 1023.6
20260831150416 81 311 0.0 0.0 0.00 0.00 0.00 76 1023.5
20260831150313 81 332 0.0 0.0 0.00 0.00 0.00 78 1023.5
20260831150213 81 32 0.0 0.0 0.00 0.00 0.00 76 1023.5
20260831150111 81 34 0.0 0.0 0.00 0.00 0.00 77 1023.5
20260831150013 81 0 0.0 0.0 0.00 0.00 0.00 76 1023.5
20260831145910 81 5 0.0 0.0 0.00 0.00 0.00 76 1023.6
20260831145801 81 0 0.0 0.0 0.00 0.00 0.00 77 1023.6
20260831145700 81 25 0.0 0.0 0.00 0.00 0.00 78 1023.6
20260831145600 81 32 0.0 0.0 0.00 0.00 0.00 75 1023.5
20260831145459 81 5 0.0 0.0 0.00 0.00 0.00 75 1023.5
20260831145400 81 320 0.0 0.0 0.00 0.00 0.00 74 1023.5
20260831145257 81 320 0.0 0.0 0.00 0.00 0.00 77 1023.5
20260831145158 81 10 0.0 0.0 0.00 0.00 0.00 76 1023.5
20260831145055 81 5 0.0 0.0 0.00 0.00 0.00 77 1023.5
20260831144956 81 355 0.0 0.0 0.00 0.00 0.00 78 1023.5
20260831144853 81 5 0.0 0.0 0.00 0.00 0.00 78 1023.6
20260831144754 81 5 0.0 0.0 0.00 0.00 0.00 78 1023.5
20260831144652 81 5 0.0 0.0 0.00 0.00 0.00 77 1023.3
20260831144550 80 5 0.0 0.0 0.00 0.00 0.00 77 1023.5
20260831144449 80 5 0.0 0.0 0.00 0.00 0.00 77 1023.5
20260831144348 80 5 0.0 0.0 0.00 0.00 0.00 78 1023.5
20260831144239 80 10 0.0 0.0 0.00 0.00 0.00 78 1023.5
20260831144137 80 11 0.0 0.0 0.00 0.00 0.00 78 1023.3
20260831144037 80 9 0.0 0.0 0.00 0.00 0.00 78 1023.5
20260831143939 80 337 0.0 0.0 0.00 0.00 0.00 77 1023.5
20260831143838 80 15 0.0 0.0 0.00 0.00 0.00 78 1023.5
20260831143737 80 14 0.0 0.0 0.00 0.00 0.00 77 1023.3
20260831143636 80 15 0.0 0.0 0.00 0.00 0.00 78 1023.3
20260831143535 80 15 0.0 0.0 0.00 0.00 0.00 78 1023.5
20260831143434 80 15 0.0 0.0 0.00 0.00 0.00 78 1023.3
20260831143332 80 327 0.0 0.0 0.00 0.00 0.00 78 1023.3
20260831143229 80 327 0.0 0.0 0.00 0.00 0.00 78 1023.3
20260831143130 80 330 0.0 0.0 0.00 0.00 0.00 78 1023.3
20260831143027 80 331 0.0 0.0 0.00 0.00 0.00 77 1023.3
20260831142929 80 340 0.0 0.0 0.00 0.00 0.00 77 1023.3
20260831142825 80 341 0.0 0.0 0.00 0.00 0.00 77 1023.3
20260831142719 80 341 0.0 0.0 0.00 0.00 0.00 78 1023.2
20260831142620 80 336 0.0 0.0 0.00 0.00 0.00 80 1023.3
20260831142520 80 319 0.0 0.0 0.00 0.00 0.00 79 1023.3
20260831142417 80 302 0.0 0.0 0.00 0.00 0.00 79 1023.3
20260831142316 80 301 0.0 0.0 0.00 0.00 0.00 78 1023.5
20260831142216 79 301 0.0 0.0 0.00 0.00 0.00 80 1023.2
20260831142113 79 301 0.0 0.0 0.00 0.00 0.00 80 1023.3
20260831142013 79 301 0.0 0.0 0.00 0.00 0.00 78 1023.3
20260831141912 79 301 0.0 0.0 0.00 0.00 0.00 79 1023.3
20260831141810 79 300 0.0 0.0 0.00 0.00 0.00 79 1023.3
20260831141703 79 300 0.0 0.0 0.00 0.00 0.00 78 1023.3
20260831141604 79 298 0.0 0.0 0.00 0.00 0.00 78 1023.2
20260831141504 79 301 0.0 0.0 0.00 0.00 0.00 80 1023.2
20260831141403 79 308 0.0 0.0 0.00 0.00 0.00 79 1023.3
20260831141304 79 309 0.0 0.0 0.00 0.00 0.00 79 1023.2
20260831141157 79 308 0.0 0.0 0.00 0.00 0.00 79 1023.2
20260831141058 79 328 0.0 0.0 0.00 0.00 0.00 79 1023.3
20260831140955 79 327 0.0 0.0 0.00 0.00 0.00 80 1023.2
20260831140856 79 327 0.0 0.0 0.00 0.00 0.00 80 1023.2
20260831140754 79 327 0.0 0.0 0.00 0.00 0.00 79 1023.2
20260831140651 79 327 0.0 0.0 0.00 0.00 0.00 79 1023.2
20260831140551 79 327 0.0 0.0 0.00 0.00 0.00 80 1023.2
20260831140451 79 329 0.0 0.0 0.00 0.00 0.00 80 1023.2
20260831140350 79 329 0.0 0.0 0.00 0.00 0.00 80 1023.2
20260831140248 79 287 0.0 0.0 0.00 0.00 0.00 80 1023.2
20260831140143 79 271 0.0 0.0 0.00 0.00 0.00 79 1023.2
20260831140044 79 296 0.0 0.0 0.00 0.00 0.00 80 1023.2
20260831135943 79 344 0.0 0.0 0.00 0.00 0.00 80 1023.2
20260831135844 79 310 0.0 0.0 0.00 0.00 0.00 81 1023.2
20260831135742 78 310 0.0 0.0 0.00 0.00 0.00 82 1023.1
20260831135635 78 311 0.0 0.0 0.00 0.00 0.00 82 1023.1
20260831135535 78 311 0.0 0.0 0.00 0.00 0.00 82 1023.2
20260831135436 78 311 0.0 0.0 0.00 0.00 0.00 81 1023.2
20260831135334 78 311 0.0 0.0 0.00 0.00 0.00 82 1023.2
20260831135231 78 311 0.0 0.0 0.00 0.00 0.00 82 1023.2
20260831135132 78 311 0.0 0.0 0.00 0.00 0.00 83 1023.2
20260831135029 78 311 0.0 0.0 0.00 0.00 0.00 82 1023.2
20260831134928 78 311 0.0 0.0 0.00 0.00 0.00 81 1023.3
20260831134828 78 311 0.0 0.0 0.00 0.00 0.00 82 1023.3
20260831134725 78 311 0.0 0.0 0.00 0.00 0.00 82 1023.2
20260831134625 78 311 0.0 0.0 0.00 0.00 0.00 82 1023.2
20260831134523 78 311 0.0 0.0 0.00 0.00 0.00 83 1023.3
20260831134420 78 311 0.0 0.0 0.00 0.00 0.00 83 1023.3
20260831134322 78 311 0.0 0.0 0.00 0.00 0.00 83 1023.2
20260831134220 77 312 0.0 0.0 0.00 0.00 0.00 83 1023.3
20260831134109 77 312 0.0 0.0 0.00 0.00 0.00 83 1023.2
20260831134010 77 311 0.0 0.0 0.00 0.00 0.00 84 1023.2
20260831133910 77 312 0.0 0.0 0.00 0.00 0.00 83 1023.2
20260831133809 77 312 0.0 0.0 0.00 0.00 0.00 83 1023.3
20260831133710 77 311 0.0 0.0 0.00 0.00 0.00 83 1023.2
20260831133603 77 299 0.0 0.0 0.00 0.00 0.00 84 1023.3
20260831133503 77 300 0.0 0.0 0.00 0.00 0.00 84 1023.2
20260831133403 77 300 0.0 0.0 0.00 0.00 0.00 84 1023.3
20260831133303 77 288 0.0 0.0 0.00 0.00 0.00 84 1023.2
20260831133204 77 277 0.0 0.0 0.00 0.00 0.00 84 1023.3
20260831133059 77 278 0.0 0.0 0.00 0.00 0.00 85 1023.3
20260831132959 77 298 0.0 0.0 0.00 0.00 0.00 85 1023.3
20260831132858 77 297 0.0 0.0 0.00 0.00 0.00 85 1023.3
20260831132800 76 297 0.0 0.0 0.00 0.00 0.00 85 1023.3
20260831132658 76 296 0.0 0.0 0.00 0.00 0.00 85 1023.2
20260831132549 76 296 0.0 0.0 0.00 0.00 0.00 85 1023.3
20260831132449 76 296 0.0 0.0 0.00 0.00 0.00 85 1023.2
20260831132347 76 283 0.0 0.0 0.00 0.00 0.00 85 1023.2
20260831132247 76 296 0.0 0.0 0.00 0.00 0.00 85 1023.3
20260831132148 76 283 0.0 0.0 0.00 0.00 0.00 85 1023.3
20260831132048 76 281 0.0 0.0 0.00 0.00 0.00 85 1023.3
20260831131945 76 279 0.0 0.0 0.00 0.00 0.00 86 1023.3
20260831131843 76 281 0.0 0.0 0.00 0.00 0.00 86 1023.3
20260831131744 76 309 0.0 0.0 0.00 0.00 0.00 86 1023.5
20260831131642 76 309 0.0 0.0 0.00 0.00 0.00 86 1023.5
20260831131538 76 304 0.0 0.0 0.00 0.00 0.00 86 1023.3
20260831131438 76 295 0.0 0.0 0.00 0.00 0.00 86 1023.3
20260831131337 76 303 0.0 0.0 0.00 0.00 0.00 86 1023.3
20260831131238 76 316 0.0 0.0 0.00 0.00 0.00 86 1023.3
20260831131135 76 326 0.0 0.0 0.00 0.00 0.00 86 1023.3
20260831131029 76 286 0.0 0.0 0.00 0.00 0.00 86 1023.2
20260831130929 76 286 0.0 0.0 0.00 0.00 0.00 87 1023.2
20260831130828 76 287 0.0 0.0 0.00 0.00 0.00 87 1023.2
20260831130728 75 287 0.0 0.0 0.00 0.00 0.00 86 1023.2
20260831130626 75 287 0.0 0.0 0.00 0.00 0.00 86 1023.2
20260831130521 75 286 0.0 0.0 0.00 0.00 0.00 87 1023.3
20260831130420 75 286 0.0 0.0 0.00 0.00 0.00 87 1023.2
20260831130321 75 285 0.0 0.0 0.00 0.00 0.00 87 1023.2
20260831130222 75 285 0.0 0.0 0.00 0.00 0.00 87 1023.2
20260831130120 75 285 0.0 0.0 0.00 0.00 0.00 87 1023.2
20260831130016 75 285 0.0 0.0 0.00 0.00 0.00 87 1023.3
20260831125912 75 285 0.0 0.0 0.00 0.00 0.00 88 1023.3
20260831125814 75 327 0.0 0.0 0.00 0.00 0.00 88 1023.2
20260831125714 75 292 0.0 0.0 0.00 0.00 0.00 87 1023.2
20260831125614 75 292 0.0 0.0 0.00 0.00 0.00 87 1023.2
20260831125506 75 292 0.0 0.0 0.00 0.00 0.00 87 1023.2
20260831125403 75 290 0.0 0.0 0.00 0.00 0.00 87 1023.2
20260831125306 75 290 0.0 0.0 0.00 0.00 0.00 87 1023.1
20260831125203 75 292 0.0 0.0 0.00 0.00 0.00 87 1023.2
20260831125104 75 292 0.0 0.0 0.00 0.00 0.00 87 1023.2
20260831124959 74 257 0.0 0.0 0.00 0.00 0.00 88 1023.1
20260831124858 74 311 0.0 0.0 0.00 0.00 0.00 88 1023.2
20260831124800 74 315 0.0 0.0 0.00 0.00 0.00 88 1023.2
20260831124659 74 319 0.0 0.0 0.00 0.00 0.00 88 1023.1
20260831124557 74 320 0.0 0.0 0.00 0.00 0.00 88 1023.3
20260831124458 74 315 0.0 0.0 0.00 0.00 0.00 89 1023.1
20260831124356 74 317 0.0 0.0 0.00 0.00 0.00 88 1023.2
20260831124255 74 317 0.0 0.0 0.00 0.00 0.00 88 1023.2
20260831124153 74 315 0.0 0.0 0.00 0.00 0.00 88 1023.3
20260831124051 74 355 0.0 0.0 0.00 0.00 0.00 88 1023.2
20260831123943 74 300 0.0 0.0 0.00 0.00 0.00 88 1023.2
20260831123842 74 248 0.0 0.0 0.00 0.00 0.00 88 1023.2
20260831123744 74 300 0.0 0.0 0.00 0.00 0.00 88 1023.2
20260831123642 74 301 0.0 0.0 0.00 0.00 0.00 88 1023.2
20260831123542 74 279 0.0 0.0 0.00 0.00 0.00 88 1023.2
20260831123438 74 300 0.0 0.0 0.00 0.00 0.00 88 1023.1
20260831123338 74 270 0.0 0.0 0.00 0.00 0.00 89 1023.1
20260831123236 74 279 0.0 0.0 0.00 0.00 0.00 89 1023.0
20260831123138 74 279 0.0 0.0 0.00 0.00 0.00 89 1023.0
20260831123036 74 279 0.0 0.0 0.00 0.00 0.00 89 1023.0
20260831122933 74 303 0.0 0.0 0.00 0.00 0.00 89 1023.0
20260831122833 73 280 0.0 0.0 0.00 0.00 0.00 89 1023.0
20260831122732 73 284 0.0 0.0 0.00 0.00 0.00 89 1022.9
20260831122632 73 281 0.0 0.0 0.00 0.00 0.00 89 1023.0
20260831122529 73 282 0.0 0.0 0.00 0.00 0.00 89 1023.0
20260831122422 73 290 0.0 0.0 0.00 0.00 0.00 89 1023.0
20260831122320 73 281 0.0 0.0 0.00 0.00 0.00 89 1023.0
20260831122219 73 290 0.0 0.0 0.00 0.00 0.00 89 1023.0
20260831122119 73 296 0.0 0.0 0.00 0.00 0.00 89 1023.0
20260831122019 73 276 0.0 0.0 0.00 0.00 0.00 89 1023.0
20260831121915 73 276 0.0 0.0 0.00 0.00 0.00 89 1022.9
20260831121813 73 276 0.0 0.0 0.00 0.00 0.00 89 1022.9
20260831121714 73 276 0.0 0.0 0.00 0.00 0.00 89 1022.9
20260831121612 73 274 0.0 0.0 0.00 0.00 0.00 90 1023.0
20260831121514 73 272 0.0 0.0 0.00 0.00 0.00 90 1022.9
20260831121406 73 271 0.0 0.0 0.00 0.00 0.00 90 1023.0
20260831121308 73 270 0.0 0.0 0.00 0.00 0.00 90 1022.9
20260831121208 73 295 0.0 0.0 0.00 0.00 0.00 90 1022.9
20260831121108 73 301 0.0 0.0 0.00 0.00 0.00 90 1022.9
20260831121007 73 315 0.0 0.0 0.00 0.00 0.00 90 1022.9
20260831120859 72 319 0.0 0.0 0.00 0.00 0.00 90 1022.8
20260831120759 72 295 0.0 0.0 0.00 0.00 0.00 90 1022.8
20260831120659 72 277 0.0 0.0 0.00 0.00 0.00 90 1022.8
20260831120600 72 290 0.0 0.0 0.00 0.00 0.00 90 1022.8
20260831120457 72 287 0.0 0.0 0.00 0.00 0.00 90 1022.7
20260831120356 72 264 0.0 0.0 0.00 0.00 0.00 91 1022.9
20260831120256 72 300 0.0 0.0 0.00 0.00 0.00 91 1022.8
20260831120152 72 302 0.0 0.0 0.00 0.00 0.00 91 1022.9
20260831120054 72 300 0.0 0.0 0.00 0.00 0.00 91 1022.8
20260831115952 72 296 0.0 0.0 0.00 0.00 0.00 91 1022.9
20260831115852 72 296 0.0 0.0 0.00 0.00 0.00 91 1022.8
20260831115749 72 296 0.0 0.0 0.00 0.00 0.00 91 1022.8
20260831115649 72 269 0.0 0.0 0.00 0.00 0.00 91 1022.8
20260831115548 72 286 0.0 0.0 0.00 0.00 0.00 91 1022.9
20260831115446 72 279 0.0 0.0 0.00 0.00 0.00 91 1022.8
20260831115340 72 280 0.0 0.0 0.00 0.00 0.00 91 1022.8
20260831115239 72 286 0.0 0.0 0.00 0.00 0.00 91 1022.8
20260831115137 72 277 0.0 0.0 0.00 0.00 0.00 91 1022.8
20260831115038 71 238 0.0 0.0 0.00 0.00 0.00 92 1022.7
20260831114935 71 325 0.0 0.0 0.00 0.00 0.00 92 1022.8
20260831114830 71 294 0.0 0.0 0.00 0.00 0.00 92 1022.8
20260831114731 71 299 0.0 0.0 0.00 0.00 0.00 92 1022.8
20260831114631 71 299 0.0 0.0 0.00 0.00 0.00 92 1022.7
20260831114532 71 299 0.0 0.0 0.00 0.00 0.00 92 1022.8
20260831114429 71 299 0.0 0.0 0.00 0.00 0.00 92 1022.8
20260831114329 71 294 0.0 0.0 0.00 0.00 0.00 92 1022.8
20260831114228 71 295 0.0 0.0 0.00 0.00 0.00 92 1022.8
20260831114127 71 295 0.0 0.0 0.00 0.00 0.00 92 1022.8
20260831114026 71 292 0.0 0.0 0.00 0.00 0.00 92 1022.8
20260831113924 71 292 0.0 0.0 0.00 0.00 0.00 92 1022.7
20260831113818 71 291 0.0 0.0 0.00 0.00 0.00 92 1022.8
20260831113717 71 301 0.0 0.0 0.00 0.00 0.00 92 1022.8
20260831113616 71 248 0.0 0.0 0.00 0.00 0.00 93 1022.8
20260831113515 71 249 0.0 0.0 0.00 0.00 0.00 93 1022.8
20260831113413 71 260 0.0 0.0 0.00 0.00 0.00 93 1022.7
20260831113308 71 259 0.0 0.0 0.00 0.00 0.00 93 1022.7
20260831113206 71 15 0.0 0.0 0.00 0.00 0.00 93 1022.8
20260831113107 71 15 0.0 0.0 0.00 0.00 0.00 93 1022.8
20260831113006 71 10 0.0 0.0 0.00 0.00 0.00 93 1022.8
20260831112908 70 348 0.0 0.0 0.00 0.00 0.00 93 1022.8
20260831112802 70 342 0.0 0.0 0.00 0.00 0.00 93 1022.8
20260831112700 70 327 0.0 0.0 0.00 0.00 0.00 93 1022.8
20260831112602 70 325 0.0 0.0 0.00 0.00 0.00 93 1022.8
20260831112500 70 323 0.0 0.0 0.00 0.00 0.00 93 1022.8
20260831112401 70 321 0.0 0.0 0.00 0.00 0.00 93 1022.9
20260831112253 70 0 0.0 0.0 0.00 0.00 0.00 93 1022.8
20260831112152 70 226 0.0 0.0 0.00 0.00 0.00 93 1022.8
20260831112051 70 236 0.0 0.0 0.00 0.00 0.00 93 1022.8
20260831111951 70 277 0.0 0.0 0.00 0.00 0.00 93 1022.7
20260831111853 70 279 0.0 0.0 0.00 0.00 0.00 93 1022.8
20260831111747 70 280 0.0 0.0 0.00 0.00 0.00 93 1022.8
20260831111647 70 279 0.0 0.0 0.00 0.00 0.00 93 1022.7
20260831111548 70 280 0.0 0.0 0.00 0.00 0.00 93 1022.7
20260831111446 70 279 0.0 0.0 0.00 0.00 0.00 93 1022.7
20260831111345 70 278 0.0 0.0 0.00 0.00 0.00 93 1022.7
20260831111243 70 255 0.0 0.0 0.00 0.00 0.00 93 1022.7
20260831111143 70 238 0.0 0.0 0.00 0.00 0.00 93 1022.7
20260831111043 70 246 0.0 0.0 0.00 0.00 0.00 93 1022.7
20260831110942 70 246 0.0 0.0 0.00 0.00 0.00 93 1022.7
20260831110840 70 245 0.0 0.0 0.00 0.00 0.00 93 1022.6
20260831110734 70 246 0.0 0.0 0.00 0.00 0.00 93 1022.6
20260831110633 70 163 0.0 0.0 0.00 0.00 0.00 93 1022.6
20260831110534 70 163 0.0 0.0 0.00 0.00 0.00 93 1022.6
20260831110431 70 163 0.0 0.0 0.00 0.00 0.00 93 1022.5
20260831110330 70 163 0.0 0.0 0.00 0.00 0.00 93 1022.6
20260831110230 70 163 0.0 0.0 0.00 0.00 0.00 93 1022.5
20260831110127 70 163 0.0 0.0 0.00 0.00 0.00 93 1022.6
20260831110028 70 163 0.0 0.0 0.00 0.00 0.00 93 1022.5
20260831105925 70 164 0.0 0.0 0.00 0.00 0.00 93 1022.5
20260831105823 70 165 0.0 0.0 0.00 0.00 0.00 93 1022.5
20260831105720 70 165 0.0 0.0 0.00 0.00 0.00 93 1022.5
20260831105617 70 165 0.0 0.0 0.00 0.00 0.00 93 1022.5
20260831105518 70 182 0.0 0.0 0.00 0.00 0.00 93 1022.5
20260831105418 70 183 0.0 0.0 0.00 0.00 0.00 93 1022.4
20260831105318 70 182 0.0 0.0 0.00 0.00 0.00 93 1022.5
20260831105210 70 182 0.0 0.0 0.00 0.00 0.00 93 1022.5
20260831105107 70 183 0.0 0.0 0.00 0.00 0.00 93 1022.5
20260831105007 70 183 0.0 0.0 0.00 0.00 0.00 93 1022.4
20260831104907 70 183 0.0 0.0 0.00 0.00 0.00 93 1022.5
20260831104808 70 183 0.0 0.0 0.00 0.00 0.00 93 1022.5
20260831104703 70 183 0.0 0.0 0.00 0.00 0.00 93 1022.4
20260831104600 70 182 0.0 0.0 0.00 0.00 0.00 93 1022.5
20260831104501 70 182 0.0 0.0 0.00 0.00 0.00 93 1022.4
20260831104401 70 182 0.0 0.0 0.00 0.00 0.00 93 1022.4
20260831104302 70 182 0.0 0.0 0.00 0.00 0.00 93 1022.4
20260831104158 70 182 0.0 0.0 0.00 0.00 0.00 93 1022.4
20260831104056 70 183 0.0 0.0 0.00 0.00 0.00 93 1022.4
20260831103957 70 185 0.0 0.0 0.00 0.00 0.00 93 1022.4
20260831103858 70 173 0.0 0.0 0.00 0.00 0.00 93 1022.4
20260831103755 70 173 0.0 0.0 0.00 0.00 0.00 93 1022.4
20260831103649 70 181 0.0 0.0 0.00 0.00 0.00 93 1022.3
20260831103549 70 181 0.0 0.0 0.00 0.00 0.00 93 1022.3
20260831103448 70 182 0.0 0.0 0.00 0.00 0.00 93 1022.3
20260831103348 70 181 0.0 0.0 0.00 0.00 0.00 93 1022.3
20260831103246 70 182 0.0 0.0 0.00 0.00 0.00 93 1022.3
20260831103142 70 182 0.0 0.0 0.00 0.00 0.00 93 1022.3
20260831103044 70 181 0.0 0.0 0.00 0.00 0.00 93 1022.2
20260831102943 70 181 0.0 0.0 0.00 0.00 0.00 93 1022.3
20260831102842 70 181 0.0 0.0 0.00 0.00 0.00 93 1022.2
20260831102739 70 182 0.0 0.0 0.00 0.00 0.00 93 1022.2
20260831102636 70 182 0.0 0.0 0.00 0.00 0.00 93 1022.2
20260831102533 70 182 0.0 0.0 0.00 0.00 0.00 93 1022.2
20260831102434 69 183 0.0 0.0 0.00 0.00 0.00 93 1022.2
20260831102334 70 181 0.0 0.0 0.00 0.00 0.00 93 1022.2
20260831102234 69 182 0.0 0.0 0.00 0.00 0.00 93 1022.2
20260831102128 69 182 0.0 0.0 0.00 0.00 0.00 93 1022.2
20260831102027 69 182 0.0 0.0 0.00 0.00 0.00 93 1022.2
20260831101926 69 183 0.0 0.0 0.00 0.00 0.00 93 1022.2
20260831101826 69 182 0.0 0.0 0.00 0.00 0.00 93 1022.2
20260831101724 69 182 0.0 0.0 0.00 0.00 0.00 93 1022.3
20260831101622 69 185 0.0 0.0 0.00 0.00 0.00 93 1022.3
20260831101521 69 185 0.0 0.0 0.00 0.00 0.00 93 1022.2
20260831101422 69 184 0.0 0.0 0.00 0.00 0.00 93 1022.1
20260831101320 69 184 0.0 0.0 0.00 0.00 0.00 93 1022.2
20260831101217 69 184 0.0 0.0 0.00 0.00 0.00 93 1022.2
20260831101118 69 184 0.0 0.0 0.00 0.00 0.00 93 1022.3
20260831101015 69 184 0.0 0.0 0.00 0.00 0.00 93 1022.2
20260831100915 69 184 0.0 0.0 0.00 0.00 0.00 93 1022.2
20260831100813 69 184 0.0 0.0 0.00 0.00 0.00 93 1022.2
20260831100712 69 184 0.0 0.0 0.00 0.00 0.00 93 1022.1
20260831100601 69 184 0.0 0.0 0.00 0.00 0.00 93 1022.2
20260831100501 69 188 0.0 0.0 0.00 0.00 0.00 93 1022.2
20260831100402 69 188 0.0 0.0 0.00 0.00 0.00 93 1022.1
20260831100302 69 188 0.0 0.0 0.00 0.00 0.00 93 1022.1
20260831100201 69 188 0.0 0.0 0.00 0.00 0.00 93 1022.1
20260831100059 69 188 0.0 0.0 0.00 0.00 0.00 93 1022.2
20260831095959 69 188 0.0 0.0 0.00 0.00 0.00 93 1022.1
20260831095858 69 188 0.0 0.0 0.00 0.00 0.00 93 1022.1
20260831095757 69 188 0.0 0.0 0.00 0.00 0.00 93 1022.1
20260831095656 69 188 0.0 0.0 0.00 0.00 0.00 93 1022.1
20260831095554 69 188 0.0 0.0 0.00 0.00 0.00 93 1022.0
20260831095454 69 188 0.0 0.0 0.00 0.00 0.00 93 1022.0
20260831095352 69 188 0.0 0.0 0.00 0.00 0.00 93 1022.0
20260831095252 69 188 0.0 0.0 0.00 0.00 0.00 93 1022.0
20260831095150 69 188 0.0 0.0 0.00 0.00 0.00 93 1022.1
20260831095041 69 189 0.0 0.0 0.00 0.00 0.00 93 1022.0
20260831094939 69 188 0.0 0.0 0.00 0.00 0.00 93 1021.9
20260831094840 69 189 0.0 0.0 0.00 0.00 0.00 93 1022.0
20260831094739 69 189 0.0 0.0 0.00 0.00 0.00 93 1022.0
20260831094639 69 188 0.0 0.0 0.00 0.00 0.00 93 1021.9
20260831094540 69 189 0.0 0.0 0.00 0.00 0.00 93 1022.0
20260831094438 69 189 0.0 0.0 0.00 0.00 0.00 93 1022.0
20260831094337 69 188 0.0 0.0 0.00 0.00 0.00 93 1021.9
20260831094236 69 188 0.0 0.0 0.00 0.00 0.00 93 1021.9
20260831094134 69 188 0.0 0.0 0.00 0.00 0.00 93 1021.9
20260831094029 69 188 0.0 0.0 0.00 0.00 0.00 93 1021.9
20260831093926 69 188 0.0 0.0 0.00 0.00 0.00 93 1021.9
20260831093827 69 189 0.0 0.0 0.00 0.00 0.00 93 1021.9
20260831093725 69 188 0.0 0.0 0.00 0.00 0.00 93 1021.9
20260831093626 69 189 0.0 0.0 0.00 0.00 0.00 93 1021.7
20260831093522 69 188 0.0 0.0 0.00 0.00 0.00 93 1021.9
20260831093418 69 188 0.0 0.0 0.00 0.00 0.00 93 1022.0
20260831093320 69 188 0.0 0.0 0.00 0.00 0.00 93 1022.0
20260831093218 69 189 0.0 0.0 0.00 0.00 0.00 93 1022.0
20260831093116 69 190 0.0 0.0 0.00 0.00 0.00 93 1022.0
20260831093012 69 190 0.0 0.0 0.00 0.00 0.00 93 1022.0
20260831092908 69 189 0.0 0.0 0.00 0.00 0.00 93 1022.0
20260831092810 69 191 0.0 0.0 0.00 0.00 0.00 93 1022.0
20260831092709 69 191 0.0 0.0 0.00 0.00 0.00 93 1022.0
20260831092610 69 191 0.0 0.0 0.00 0.00 0.00 93 1022.0
20260831092503 69 192 0.0 0.0 0.00 0.00 0.00 93 1022.0
20260831092402 69 192 0.0 0.0 0.00 0.00 0.00 93 1021.9
20260831092306 69 191 0.0 0.0 0.00 0.00 0.00 93 1022.0
20260831092204 69 192 0.0 0.0 0.00 0.00 0.00 93 1021.9
20260831092104 69 192 0.0 0.0 0.00 0.00 0.00 93 1021.9
20260831091956 69 192 0.0 0.0 0.00 0.00 0.00 93 1021.9
20260831091858 69 192 0.0 0.0 0.00 0.00 0.00 93 1021.9
20260831091758 69 191 0.0 0.0 0.00 0.00 0.00 93 1021.9
20260831091656 69 192 0.0 0.0 0.00 0.00 0.00 93 1022.0
20260831091553 69 192 0.0 0.0 0.00 0.00 0.00 93 1022.0
20260831091453 69 191 0.0 0.0 0.00 0.00 0.00 93 1022.0
20260831091352 69 192 0.0 0.0 0.00 0.00 0.00 93 1022.0
20260831091250 69 192 0.0 0.0 0.00 0.00 0.00 93 1022.0
20260831091150 69 192 0.0 0.0 0.00 0.00 0.00 93 1022.0
20260831091048 69 192 0.0 0.0 0.00 0.00 0.00 93 1022.1
20260831090942 69 192 0.0 0.0 0.00 0.00 0.00 92 1021.9
20260831090840 69 192 0.0 0.0 0.00 0.00 0.00 92 1022.1
20260831090740 69 192 0.0 0.0 0.00 0.00 0.00 92 1021.9
20260831090639 69 192 0.0 0.0 0.00 0.00 0.00 92 1022.0
20260831090539 69 192 0.0 0.0 0.00 0.00 0.00 92 1021.9
20260831090439 69 192 0.0 0.0 0.00 0.00 0.00 92 1021.9
20260831090338 69 192 0.0 0.0 0.00 0.00 0.00 92 1022.0
20260831090239 69 192 0.0 0.0 0.00 0.00 0.00 92 1022.0
20260831090138 69 192 0.0 0.0 0.00 0.00 0.00 92 1022.0
20260831090036 69 192 0.0 0.0 0.00 0.00 0.00 92 1022.0
20260831085937 69 192 0.0 0.0 0.00 0.00 0.00 92 1022.0
20260831085837 69 192 0.0 0.0 0.00 0.00 0.00 92 1022.0
20260831085736 69 192 0.0 0.0 0.00 0.00 0.00 92 1022.0
20260831085638 69 192 0.0 0.0 0.00 0.00 0.00 92 1022.1
20260831085537 69 191 0.0 0.0 0.00 0.00 0.00 92 1022.1
20260831085438 69 192 0.0 0.0 0.00 0.00 0.00 92 1022.0
20260831085336 69 192 0.0 0.0 0.00 0.00 0.00 92 1022.1
20260831085238 69 192 0.0 0.0 0.00 0.00 0.00 92 1022.1
20260831085136 69 192 0.0 0.0 0.00 0.00 0.00 92 1022.1
20260831085037 69 192 0.0 0.0 0.00 0.00 0.00 92 1022.1
20260831084936 69 191 0.0 0.0 0.00 0.00 0.00 92 1022.1
20260831084836 69 192 0.0 0.0 0.00 0.00 0.00 92 1022.1
20260831084737 69 192 0.0 0.0 0.00 0.00 0.00 92 1022.1
20260831084636 69 191 0.0 0.0 0.00 0.00 0.00 92 1022.0
20260831084538 69 191 0.0 0.0 0.00 0.00 0.00 92 1022.0
20260831084436 69 191 0.0 0.0 0.00 0.00 0.00 91 1022.1
20260831084336 69 191 0.0 0.0 0.00 0.00 0.00 91 1022.0
20260831084238 69 190 0.0 0.0 0.00 0.00 0.00 91 1022.0
20260831084137 69 191 0.0 0.0 0.00 0.00 0.00 91 1022.1
20260831084038 69 192 0.0 0.0 0.00 0.00 0.00 91 1022.0
20260831083938 69 192 0.0 0.0 0.00 0.00 0.00 91 1022.0
20260831083837 69 191 0.0 0.0 0.00 0.00 0.00 91 1022.0
20260831083736 69 192 0.0 0.0 0.00 0.00 0.00 91 1022.0
20260831083638 69 192 0.0 0.0 0.00 0.00 0.00 91 1021.9
20260831083536 69 192 0.0 0.0 0.00 0.00 0.00 91 1022.0
20260831083436 69 192 0.0 0.0 0.00 0.00 0.00 91 1022.0
20260831083337 69 192 0.0 0.0 0.00 0.00 0.00 91 1021.9
20260831083238 69 193 0.0 0.0 0.00 0.00 0.00 91 1021.9
20260831083133 69 193 0.0 0.0 0.00 0.00 0.00 90 1022.0
20260831083033 69 193 0.0 0.0 0.00 0.00 0.00 90 1021.9
20260831082932 69 193 0.0 0.0 0.00 0.00 0.00 90 1021.9
20260831082833 70 194 0.0 0.0 0.00 0.00 0.00 90 1022.0
20260831082734 70 193 0.0 0.0 0.00 0.00 0.00 90 1021.9
20260831082634 70 193 0.0 0.0 0.00 0.00 0.00 90 1021.9
20260831082533 70 195 0.0 0.0 0.00 0.00 0.00 90 1021.9
20260831082433 70 195 0.0 0.0 0.00 0.00 0.00 90 1021.9
20260831082333 70 196 0.0 0.0 0.00 0.00 0.00 90 1021.9
20260831082232 70 196 0.0 0.0 0.00 0.00 0.00 90 1021.9
20260831082133 70 196 0.0 0.0 0.00 0.00 0.00 90 1021.9
20260831082033 70 196 0.0 0.0 0.00 0.00 0.00 91 1021.7
20260831081934 70 196 0.0 0.0 0.00 0.00 0.00 90 1021.9
20260831081834 70 196 0.0 0.0 0.00 0.00 0.00 90 1021.7
20260831081733 70 196 0.0 0.0 0.00 0.00 0.00 90 1021.9
20260831081633 70 196 0.0 0.0 0.00 0.00 0.00 90 1021.7
20260831081532 70 200 0.0 0.0 0.00 0.00 0.00 91 1021.7
20260831081433 70 205 0.0 0.0 0.00 0.00 0.00 90 1021.7
20260831081332 70 204 0.0 0.0 0.00 0.00 0.00 90 1021.7
20260831081233 70 205 0.0 0.0 0.00 0.00 0.00 90 1021.9
20260831081133 70 205 0.0 0.0 0.00 0.00 0.00 90 1021.7
20260831081034 70 205 0.0 0.0 0.00 0.00 0.00 90 1021.9
20260831080932 70 205 0.0 0.0 0.00 0.00 0.00 90 1021.6
20260831080834 70 219 0.0 0.0 0.00 0.00 0.00 91 1021.7
20260831080732 70 219 0.0 0.0 0.00 0.00 0.00 90 1021.7
20260831080634 70 219 0.0 0.0 0.00 0.00 0.00 90 1021.9
20260831080533 70 222 0.0 0.0 0.00 0.00 0.00 90 1021.9
20260831080432 70 223 0.0 0.0 0.00 0.00 0.00 90 1021.9
20260831080333 70 223 0.0 0.0 0.00 0.00 0.00 90 1021.6
20260831080232 70 223 0.0 0.0 0.00 0.00 0.00 90 1021.7
20260831080133 70 219 0.0 0.0 0.00 0.00 0.00 90 1021.9
20260831080033 70 209 0.0 0.0 0.00 0.00 0.00 90 1021.9
20260831075934 70 208 0.0 0.0 0.00 0.00 0.00 90 1021.7
20260831075832 70 225 0.0 0.0 0.00 0.00 0.00 90 1021.9
20260831075732 70 178 0.0 0.0 0.00 0.00 0.00 90 1021.7
20260831075632 70 178 0.0 0.0 0.00 0.00 0.00 91 1021.7
20260831075534 70 177 0.0 0.0 0.00 0.00 0.00 91 1021.7
20260831075432 70 178 0.0 0.0 0.00 0.00 0.00 91 1021.7
20260831075332 70 190 0.0 0.0 0.00 0.00 0.00 91 1021.7
20260831075233 69 190 0.0 0.0 0.00 0.00 0.00 91 1021.7
20260831075133 69 214 0.0 0.0 0.00 0.00 0.00 91 1021.9
20260831075032 69 218 0.0 0.0 0.00 0.00 0.00 91 1021.7
20260831074934 69 218 0.0 0.0 0.00 0.00 0.00 91 1021.7
20260831074832 69 218 0.0 0.0 0.00 0.00 0.00 91 1021.7
20260831074733 69 173 0.0 0.0 0.00 0.00 0.00 91 1021.9
20260831074632 69 173 0.0 0.0 0.00 0.00 0.00 91 1021.9
20260831074533 69 173 0.0 0.0 0.00 0.00 0.00 91 1021.9
20260831074430 69 177 0.0 0.0 0.00 0.00 0.00 91 1021.9
20260831074328 69 177 0.0 0.0 0.00 0.00 0.00 91 1022.0
20260831074230 69 217 0.0 0.0 0.00 0.00 0.00 91 1021.9
20260831074128 69 217 0.0 0.0 0.00 0.00 0.00 91 1022.0
20260831074030 69 215 0.0 0.0 0.00 0.00 0.00 91 1022.0
20260831073928 69 215 0.0 0.0 0.00 0.00 0.00 91 1021.9
20260831073829 69 221 0.0 0.0 0.00 0.00 0.00 91 1022.0
20260831073729 69 223 0.0 0.0 0.00 0.00 0.00 91 1022.0
20260831073629 69 223 0.0 0.0 0.00 0.00 0.00 91 1021.9
20260831073529 69 223 0.0 0.0 0.00 0.00 0.00 91 1022.0
20260831073430 69 210 0.0 0.0 0.00 0.00 0.00 91 1021.9
20260831073329 69 210 0.0 0.0 0.00 0.00 0.00 91 1021.9
20260831073228 69 210 0.0 0.0 0.00 0.00 0.00 91 1021.9
20260831073128 69 211 0.0 0.0 0.00 0.00 0.00 91 1021.9
20260831073028 69 241 0.0 0.0 0.00 0.00 0.00 92 1021.9
20260831072930 69 241 0.0 0.0 0.00 0.00 0.00 92 1021.9
20260831072828 69 240 0.0 0.0 0.00 0.00 0.00 92 1021.9
20260831072729 69 240 0.0 0.0 0.00 0.00 0.00 92 1022.0
20260831072628 69 73 0.0 0.0 0.00 0.00 0.00 92 1022.0
20260831072529 69 94 0.0 0.0 0.00 0.00 0.00 91 1022.0
20260831072429 69 94 0.0 0.0 0.00 0.00 0.00 92 1022.0
20260831072328 69 93 0.0 0.0 0.00 0.00 0.00 92 1021.9
20260831072230 69 93 0.0 0.0 0.00 0.00 0.00 92 1022.0
20260831072129 69 93 0.0 0.0 0.00 0.00 0.00 92 1022.0
20260831072030 69 93 0.0 0.0 0.00 0.00 0.00 92 1022.0
20260831071930 69 93 0.0 0.0 0.00 0.00 0.00 92 1022.0
20260831071828 69 93 0.0 0.0 0.00 0.00 0.00 92 1021.9
20260831071729 69 93 0.0 0.0 0.00 0.00 0.00 92 1022.0
20260831071628 69 93 0.0 0.0 0.00 0.00 0.00 92 1022.0
20260831071530 69 93 0.0 0.0 0.00 0.00 0.00 92 1021.9
20260831071428 69 93 0.0 0.0 0.00 0.00 0.00 92 1021.9
20260831071330 69 93 0.0 0.0 0.00 0.00 0.00 91 1022.0
20260831071229 69 93 0.0 0.0 0.00 0.00 0.00 91 1022.0
20260831071124 69 93 0.0 0.0 0.00 0.00 0.00 91 1022.0
20260831071025 69 92 0.0 0.0 0.00 0.00 0.00 91 1021.9
20260831070924 69 92 0.0 0.0 0.00 0.00 0.00 91 1022.0
20260831070825 69 92 0.0 0.0 0.00 0.00 0.00 91 1022.0
20260831070724 69 93 0.0 0.0 0.00 0.00 0.00 91 1022.0
20260831070624 69 93 0.0 0.0 0.00 0.00 0.00 91 1021.9
20260831070524 69 93 0.0 0.0 0.00 0.00 0.00 91 1022.1
20260831070424 69 93 0.0 0.0 0.00 0.00 0.00 91 1022.0
20260831070324 69 93 0.0 0.0 0.00 0.00 0.00 91 1022.0
20260831070225 69 92 0.0 0.0 0.00 0.00 0.00 91 1022.1
20260831070124 69 92 0.0 0.0 0.00 0.00 0.00 91 1022.1
20260831070025 69 93 0.0 0.0 0.00 0.00 0.00 91 1022.1
20260831065926 69 92 0.0 0.0 0.00 0.00 0.00 91 1022.2
20260831065824 69 92 0.0 0.0 0.00 0.00 0.00 91 1022.2
20260831065725 69 93 0.0 0.0 0.00 0.00 0.00 91 1022.2
20260831065624 69 93 0.0 0.0 0.00 0.00 0.00 91 1022.2
20260831065526 69 92 0.0 0.0 0.00 0.00 0.00 91 1022.1
20260831065424 69 93 0.0 0.0 0.00 0.00 0.00 91 1022.1
20260831065324 69 157 0.0 0.0 0.00 0.00 0.00 91 1022.1
20260831065225 69 157 0.0 0.0 0.00 0.00 0.00 91 1022.3
20260831065125 69 157 0.0 0.0 0.00 0.00 0.00 91 1022.2
20260831065026 69 157 0.0 0.0 0.00 0.00 0.00 91 1022.3
20260831064924 69 157 0.0 0.0 0.00 0.00 0.00 91 1022.3
20260831064825 69 157 0.0 0.0 0.00 0.00 0.00 91 1022.2
20260831064724 69 158 0.0 0.0 0.00 0.00 0.00 91 1022.3
20260831064626 69 158 0.0 0.0 0.00 0.00 0.00 91 1022.2
20260831064516 70 157 0.0 0.0 0.00 0.00 0.00 91 1022.3
20260831064414 69 157 0.0 0.0 0.00 0.00 0.00 91 1022.3
20260831064314 70 158 0.0 0.0 0.00 0.00 0.00 91 1022.4
20260831064216 70 158 0.0 0.0 0.00 0.00 0.00 91 1022.4
20260831064114 70 157 0.0 0.0 0.00 0.00 0.00 91 1022.4
20260831064013 70 158 0.0 0.0 0.00 0.00 0.00 91 1022.3
20260831063912 70 158 0.0 0.0 0.00 0.00 0.00 91 1022.4
20260831063810 70 158 0.0 0.0 0.00 0.00 0.00 91 1022.4
20260831063710 70 158 0.0 0.0 0.00 0.00 0.00 91 1022.4
20260831063606 70 158 0.0 0.0 0.00 0.00 0.00 91 1022.4
20260831063502 70 158 0.0 0.0 0.00 0.00 0.00 91 1022.4
20260831063400 70 158 0.0 0.0 0.00 0.00 0.00 91 1022.4
20260831063301 70 158 0.0 0.0 0.00 0.00 0.00 91 1022.5
20260831063202 70 158 0.0 0.0 0.00 0.00 0.00 91 1022.5
20260831063100 70 157 0.0 0.0 0.00 0.00 0.00 91 1022.4
20260831062954 70 158 0.0 0.0 0.00 0.00 0.00 92 1022.4
20260831062851 70 158 0.0 0.0 0.00 0.00 0.00 91 1022.5
20260831062749 70 158 0.0 0.0 0.00 0.00 0.00 91 1022.4
20260831062650 70 158 0.0 0.0 0.00 0.00 0.00 92 1022.4
20260831062550 70 158 0.0 0.0 0.00 0.00 0.00 92 1022.4
20260831062451 70 158 0.0 0.0 0.00 0.00 0.00 92 1022.4
20260831062348 70 158 0.0 0.0 0.00 0.00 0.00 92 1022.4
20260831062248 70 158 0.0 0.0 0.00 0.00 0.00 92 1022.4
20260831062147 70 158 0.0 0.0 0.00 0.00 0.00 92 1022.4
20260831062045 70 158 0.0 0.0 0.00 0.00 0.00 92 1022.5
20260831061942 70 158 0.0 0.0 0.00 0.00 0.00 92 1022.4
20260831061843 70 158 0.0 0.0 0.00 0.00 0.00 92 1022.5
20260831061741 70 158 0.0 0.0 0.00 0.00 0.00 92 1022.4
20260831061640 70 158 0.0 0.0 0.00 0.00 0.00 92 1022.5
20260831061539 70 158 0.0 0.0 0.00 0.00 0.00 92 1022.6
20260831061430 70 157 0.0 0.0 0.00 0.00 0.00 92 1022.6
20260831061331 70 157 0.0 0.0 0.00 0.00 0.00 92 1022.6
20260831061231 70 158 0.0 0.0 0.00 0.00 0.00 92 1022.6
20260831061130 70 157 0.0 0.0 0.00 0.00 0.00 92 1022.6
20260831061029 70 157 0.0 0.0 0.00 0.00 0.00 92 1022.6
20260831060929 70 157 0.0 0.0 0.00 0.00 0.00 92 1022.6
20260831060827 70 157 0.0 0.0 0.00 0.00 0.00 92 1022.6
20260831060725 70 158 0.0 0.0 0.00 0.00 0.00 92 1022.7
20260831060624 70 157 0.0 0.0 0.00 0.00 0.00 92 1022.6
20260831060524 70 157 0.0 0.0 0.00 0.00 0.00 92 1022.7
20260831060425 70 157 0.0 0.0 0.00 0.00 0.00 91 1022.7
20260831060325 70 158 0.0 0.0 0.00 0.00 0.00 91 1022.6
20260831060221 70 158 0.0 0.0 0.00 0.00 0.00 91 1022.6
20260831060118 70 157 0.0 0.0 0.00 0.00 0.00 91 1022.6
20260831060016 70 158 0.0 0.0 0.00 0.00 0.00 91 1022.7
20260831055907 70 158 0.0 0.0 0.00 0.00 0.00 91 1022.8
20260831055806 70 158 0.0 0.0 0.00 0.00 0.00 91 1022.8
20260831055706 70 158 0.0 0.0 0.00 0.00 0.00 91 1022.7
20260831055607 70 157 0.0 0.0 0.00 0.00 0.00 91 1022.7
20260831055507 70 157 0.0 0.0 0.00 0.00 0.00 91 1022.6
20260831055402 70 157 0.0 0.0 0.00 0.00 0.00 91 1022.7
20260831055301 70 157 0.0 0.0 0.00 0.00 0.00 91 1022.7
20260831055201 70 157 0.0 0.0 0.00 0.00 0.00 91 1022.8
20260831055101 70 158 0.0 0.0 0.00 0.00 0.00 91 1022.7
20260831055001 70 157 0.0 0.0 0.00 0.00 0.00 91 1022.7
20260831054856 70 157 0.0 0.0 0.00 0.00 0.00 91 1022.7
20260831054755 70 157 0.0 0.0 0.00 0.00 0.00 91 1022.7
20260831054654 70 157 0.0 0.0 0.00 0.00 0.00 90 1022.8
20260831054556 70 157 0.0 0.0 0.00 0.00 0.00 90 1022.7
20260831054455 70 156 0.0 0.0 0.00 0.00 0.00 90 1022.7
20260831054348 70 157 0.0 0.0 0.00 0.00 0.00 90 1022.8
20260831054250 70 156 0.0 0.0 0.00 0.00 0.00 90 1022.7
20260831054148 70 157 0.0 0.0 0.00 0.00 0.00 90 1022.8
20260831054048 70 157 0.0 0.0 0.00 0.00 0.00 90 1022.7
20260831053944 70 157 0.0 0.0 0.00 0.00 0.00 90 1022.8
20260831053843 70 157 0.0 0.0 0.00 0.00 0.00 90 1022.8
20260831053742 70 157 0.0 0.0 0.00 0.00 0.00 90 1022.8
20260831053643 70 157 0.0 0.0 0.00 0.00 0.00 90 1022.8
20260831053543 70 156 0.0 0.0 0.00 0.00 0.00 90 1022.8
20260831053443 70 157 0.0 0.0 0.00 0.00 0.00 90 1022.8
20260831053335 70 157 0.0 0.0 0.00 0.00 0.00 90 1022.8
20260831053232 70 157 0.0 0.0 0.00 0.00 0.00 90 1022.8
20260831053132 70 156 0.0 0.0 0.00 0.00 0.00 89 1022.8
20260831053030 70 157 0.0 0.0 0.00 0.00 0.00 89 1022.9
20260831052929 70 157 0.0 0.0 0.00 0.00 0.00 89 1022.9
20260831052825 70 157 0.0 0.0 0.00 0.00 0.00 89 1022.8
20260831052722 70 154 0.0 0.0 0.00 0.00 0.00 89 1022.9
20260831052623 70 154 0.0 0.0 0.00 0.00 0.00 89 1022.8
20260831052521 70 153 0.0 0.0 0.00 0.00 0.00 89 1022.9
20260831052418 70 150 0.0 0.0 0.00 0.00 0.00 89 1022.9
20260831052316 70 151 0.0 0.0 0.00 0.00 0.00 89 1022.9
20260831052215 70 150 0.0 0.0 0.00 0.00 0.00 89 1022.8
20260831052116 70 149 0.0 0.0 0.00 0.00 0.00 89 1022.8
20260831052015 71 157 0.0 0.0 0.00 0.00 0.00 89 1022.8
20260831051913 71 146 0.0 0.0 0.00 0.00 0.00 89 1022.9
20260831051813 71 145 0.0 0.0 0.00 0.00 0.00 89 1022.8
20260831051711 71 143 0.0 0.0 0.00 0.00 0.00 89 1022.8
20260831051610 71 145 0.0 0.0 0.00 0.00 0.00 89 1022.9
20260831051507 71 146 0.0 0.0 0.00 0.00 0.00 89 1022.9
20260831051407 71 146 0.0 0.0 0.00 0.00 0.00 89 1022.8
20260831051256 71 142 0.0 0.0 0.00 0.00 0.00 89 1022.8
20260831051156 71 145 0.0 0.0 0.00 0.00 0.00 89 1022.8
20260831051058 71 144 0.0 0.0 0.00 0.00 0.00 89 1022.9
20260831050956 71 145 0.0 0.0 0.00 0.00 0.00 89 1022.9
20260831050856 71 143 0.0 0.0 0.00 0.00 0.00 89 1022.9
20260831050756 71 142 0.0 0.0 0.00 0.00 0.00 89 1022.9
20260831050655 71 142 0.0 0.0 0.00 0.00 0.00 89 1022.9
20260831050555 71 143 0.0 0.0 0.00 0.00 0.00 89 1022.8
20260831050452 71 144 0.0 0.0 0.00 0.00 0.00 89 1022.8
20260831050351 71 143 0.0 0.0 0.00 0.00 0.00 89 1022.9
20260831050245 71 143 0.0 0.0 0.00 0.00 0.00 89 1022.8
20260831050146 71 144 0.0 0.0 0.00 0.00 0.00 89 1022.8
20260831050045 71 145 0.0 0.0 0.00 0.00 0.00 89 1022.8
20260831045944 71 146 0.0 0.0 0.00 0.00 0.00 89 1022.9
20260831045845 71 146 0.0 0.0 0.00 0.00 0.00 89 1022.8
20260831045737 71 146 0.0 0.0 0.00 0.00 0.00 89 1022.9
20260831045635 71 146 0.0 0.0 0.00 0.00 0.00 89 1022.9
20260831045534 71 146 0.0 0.0 0.00 0.00 0.00 89 1022.9
20260831045434 71 147 0.0 0.0 0.00 0.00 0.00 89 1022.9
20260831045335 71 147 0.0 0.0 0.00 0.00 0.00 89 1022.9
20260831045232 71 146 0.0 0.0 0.00 0.00 0.00 89 1022.9
20260831045132 71 148 0.0 0.0 0.00 0.00 0.00 89 1022.9
20260831045033 71 148 0.0 0.0 0.00 0.00 0.00 89 1022.8
20260831044930 71 148 0.0 0.0 0.00 0.00 0.00 89 1022.8
20260831044828 71 148 0.0 0.0 0.00 0.00 0.00 89 1022.8
20260831044722 71 148 0.0 0.0 0.00 0.00 0.00 89 1022.8
20260831044622 71 149 0.0 0.0 0.00 0.00 0.00 89 1022.8
20260831044522 71 150 0.0 0.0 0.00 0.00 0.00 89 1022.9
20260831044423 71 148 0.0 0.0 0.00 0.00 0.00 89 1022.9
20260831044322 71 148 0.0 0.0 0.00 0.00 0.00 89 1022.8
20260831044215 71 146 0.0 0.0 0.00 0.00 0.00 89 1022.8
20260831044112 71 146 0.0 0.0 0.00 0.00 0.00 89 1022.8
20260831044011 71 146 0.0 0.0 0.00 0.00 0.00 89 1022.8
20260831043912 71 149 0.0 0.0 0.00 0.00 0.00 89 1022.8
20260831043813 71 148 0.0 0.0 0.00 0.00 0.00 89 1022.8
20260831043706 71 149 0.0 0.0 0.00 0.00 0.00 89 1022.9
20260831043606 71 146 0.0 0.0 0.00 0.00 0.00 89 1022.8
20260831043507 71 146 0.0 0.0 0.00 0.00 0.00 89 1022.8
20260831043405 71 150 0.0 0.0 0.00 0.00 0.00 89 1022.9
20260831043306 71 148 0.0 0.0 0.00 0.00 0.00 88 1022.9
20260831043200 71 147 0.0 0.0 0.00 0.00 0.00 88 1022.9
20260831043100 71 143 0.0 0.0 0.00 0.00 0.00 88 1023.0
20260831043001 71 150 0.0 0.0 0.00 0.00 0.00 88 1023.0
20260831042901 71 148 0.0 0.0 0.00 0.00 0.00 88 1022.9
20260831042800 71 147 0.0 0.0 0.00 0.00 0.00 88 1022.9
20260831042650 71 148 0.0 0.0 0.00 0.00 0.00 88 1022.8
20260831042551 71 149 0.0 0.0 0.00 0.00 0.00 88 1022.9
20260831042450 71 149 0.0 0.0 0.00 0.00 0.00 88 1022.9
20260831042351 71 148 0.0 0.0 0.00 0.00 0.00 88 1022.9
20260831042250 71 149 0.0 0.0 0.00 0.00 0.00 88 1022.9
20260831042144 71 148 0.0 0.0 0.00 0.00 0.00 88 1022.9
20260831042045 71 149 0.0 0.0 0.00 0.00 0.00 88 1022.9
20260831041945 71 150 0.0 0.0 0.00 0.00 0.00 88 1023.0
20260831041844 71 148 0.0 0.0 0.00 0.00 0.00 88 1022.8
20260831041744 71 148 0.0 0.0 0.00 0.00 0.00 88 1022.9
20260831041641 71 149 0.0 0.0 0.00 0.00 0.00 88 1022.9
20260831041541 71 150 0.0 0.0 0.00 0.00 0.00 88 1022.9
20260831041438 71 149 0.0 0.0 0.00 0.00 0.00 88 1022.9
20260831041340 71 150 0.0 0.0 0.00 0.00 0.00 87 1023.0
20260831041237 71 150 0.0 0.0 0.00 0.00 0.00 87 1022.9
20260831041130 71 150 0.0 0.0 0.00 0.00 0.00 87 1023.0
20260831041032 71 150 0.0 0.0 0.00 0.00 0.00 87 1023.0
20260831040928 71 150 0.0 0.0 0.00 0.00 0.00 87 1023.0
20260831040830 71 150 0.0 0.0 0.00 0.00 0.00 87 1022.9
20260831040726 71 149 0.0 0.0 0.00 0.00 0.00 87 1023.0
20260831040623 72 149 0.0 0.0 0.00 0.00 0.00 87 1023.0
20260831040520 72 150 0.0 0.0 0.00 0.00 0.00 87 1023.0
20260831040421 71 148 0.0 0.0 0.00 0.00 0.00 87 1022.9
20260831040320 72 149 0.0 0.0 0.00 0.00 0.00 87 1023.0
20260831040220 72 150 0.0 0.0 0.00 0.00 0.00 87 1023.0
20260831040121 72 148 0.0 0.0 0.00 0.00 0.00 87 1023.0
20260831040018 72 148 0.0 0.0 0.00 0.00 0.00 87 1023.0
20260831035917 72 149 0.0 0.0 0.00 0.00 0.00 87 1023.0
20260831035817 72 148 0.0 0.0 0.00 0.00 0.00 87 1023.0
20260831035715 72 150 0.0 0.0 0.00 0.00 0.00 87 1023.0
20260831035605 72 148 0.0 0.0 0.00 0.00 0.00 87 1023.1
20260831035505 72 148 0.0 0.0 0.00 0.00 0.00 87 1023.1
20260831035404 72 148 0.0 0.0 0.00 0.00 0.00 87 1023.1
20260831035306 72 148 0.0 0.0 0.00 0.00 0.00 87 1023.2
20260831035205 72 148 0.0 0.0 0.00 0.00 0.00 87 1023.1
20260831035102 72 148 0.0 0.0 0.00 0.00 0.00 87 1023.1
20260831035002 72 149 0.0 0.0 0.00 0.00 0.00 87 1023.0
20260831034901 72 148 0.0 0.0 0.00 0.00 0.00 87 1023.2
20260831034801 72 149 0.0 0.0 0.00 0.00 0.00 87 1023.1
20260831034659 72 148 0.0 0.0 0.00 0.00 0.00 87 1023.1
20260831034556 72 146 0.0 0.0 0.00 0.00 0.00 87 1023.2
20260831034457 72 148 0.0 0.0 0.00 0.00 0.00 87 1023.2
20260831034354 72 146 0.0 0.0 0.00 0.00 0.00 87 1023.2
20260831034255 72 148 0.0 0.0 0.00 0.00 0.00 87 1023.2
20260831034153 72 146 0.0 0.0 0.00 0.00 0.00 87 1023.2
20260831034054 72 144 0.0 0.0 0.00 0.00 0.00 87 1023.2
20260831033950 72 148 0.0 0.0 0.00 0.00 0.00 87 1023.2
20260831033852 72 144 0.0 0.0 0.00 0.00 0.00 87 1023.3
20260831033748 72 145 0.0 0.0 0.00 0.00 0.00 87 1023.2
20260831033649 72 147 0.0 0.0 0.00 0.00 0.00 87 1023.1
20260831033546 72 148 0.0 0.0 0.00 0.00 0.00 87 1023.2
20260831033444 72 148 0.0 0.0 0.00 0.00 0.00 87 1023.1
20260831033342 72 149 0.0 0.0 0.00 0.00 0.00 87 1023.2
20260831033237 72 146 0.0 0.0 0.00 0.00 0.00 87 1023.2
20260831033137 72 146 0.0 0.0 0.00 0.00 0.00 87 1023.2
20260831033034 72 147 0.0 0.0 0.00 0.00 0.00 87 1023.3
20260831032934 72 147 0.0 0.0 0.00 0.00 0.00 87 1023.3
20260831032832 72 146 0.0 0.0 0.00 0.00 0.00 87 1023.3
20260831032733 72 147 0.0 0.0 0.00 0.00 0.00 87 1023.5
20260831032631 72 146 0.0 0.0 0.00 0.00 0.00 87 1023.5
20260831032526 72 146 0.0 0.0 0.00 0.00 0.00 87 1023.6
20260831032426 72 148 0.0 0.0 0.00 0.00 0.00 87 1023.6
20260831032326 72 148 0.0 0.0 0.00 0.00 0.00 87 1023.5
20260831032223 72 147 0.0 0.0 0.00 0.00 0.00 87 1023.5
20260831032121 72 146 0.0 0.0 0.00 0.00 0.00 87 1023.3
20260831032017 72 145 0.0 0.0 0.00 0.00 0.00 87 1023.5
20260831031914 72 148 0.0 0.0 0.00 0.00 0.00 87 1023.5
20260831031815 72 148 0.0 0.0 0.00 0.00 0.00 87 1023.3
20260831031714 72 146 0.0 0.0 0.00 0.00 0.00 87 1023.5
20260831031614 72 146 0.0 0.0 0.00 0.00 0.00 87 1023.5
20260831031512 72 145 0.0 0.0 0.00 0.00 0.00 87 1023.5
20260831031414 72 153 0.0 0.0 0.00 0.00 0.00 87 1023.5
20260831031310 72 158 0.0 0.0 0.00 0.00 0.00 87 1023.5
20260831031211 72 159 0.0 0.0 0.00 0.00 0.00 87 1023.5
20260831031108 72 163 0.0 0.0 0.00 0.00 0.00 87 1023.5
20260831031003 72 165 0.0 0.0 0.00 0.00 0.00 87 1023.5
20260831030903 72 165 0.0 0.0 0.00 0.00 0.00 87 1023.5
20260831030803 72 165 0.0 0.0 0.00 0.00 0.00 87 1023.3
20260831030700 72 165 0.0 0.0 0.00 0.00 0.00 87 1023.3
20260831030559 72 166 0.0 0.0 0.00 0.00 0.00 87 1023.5
20260831030500 72 166 0.0 0.0 0.00 0.00 0.00 87 1023.5
20260831030356 72 166 0.0 0.0 0.00 0.00 0.00 87 1023.3
20260831030258 72 166 0.0 0.0 0.00 0.00 0.00 87 1023.3
20260831030155 72 167 0.0 0.0 0.00 0.00 0.00 87 1023.5
20260831030053 72 190 0.0 0.0 0.00 0.00 0.00 87 1023.5
20260831025952 72 191 0.0 0.0 0.00 0.00 0.00 87 1023.5
20260831025850 72 191 0.0 0.0 0.00 0.00 0.00 87 1023.5
20260831025750 72 191 0.0 0.0 0.00 0.00 0.00 87 1023.6
20260831025649 72 191 0.0 0.0 0.00 0.00 0.00 87 1023.5
20260831025546 72 191 0.0 0.0 0.00 0.00 0.00 87 1023.5
20260831025440 72 191 0.0 0.0 0.00 0.00 0.00 87 1023.6
20260831025341 72 191 0.0 0.0 0.00 0.00 0.00 87 1023.5
20260831025242 72 191 0.0 0.0 0.00 0.00 0.00 87 1023.5
20260831025140 72 191 0.0 0.0 0.00 0.00 0.00 87 1023.5
20260831025037 72 191 0.0 0.0 0.00 0.00 0.00 86 1023.5
20260831024934 72 192 0.0 0.0 0.00 0.00 0.00 86 1023.5
20260831024834 72 191 0.0 0.0 0.00 0.00 0.00 86 1023.5
20260831024735 72 192 0.0 0.0 0.00 0.00 0.00 87 1023.5
20260831024633 72 192 0.0 0.0 0.00 0.00 0.00 86 1023.5
20260831024531 72 192 0.0 0.0 0.00 0.00 0.00 86 1023.6
20260831024430 72 191 0.0 0.0 0.00 0.00 0.00 86 1023.3
20260831024330 72 191 0.0 0.0 0.00 0.00 0.00 87 1023.5
20260831024229 72 191 0.0 0.0 0.00 0.00 0.00 87 1023.5
20260831024127 72 192 0.0 0.0 0.00 0.00 0.00 87 1023.5
20260831024025 72 193 0.0 0.0 0.00 0.00 0.00 87 1023.5
20260831023919 72 193 0.0 0.0 0.00 0.00 0.00 87 1023.6
20260831023818 73 194 0.0 0.0 0.00 0.00 0.00 87 1023.5
20260831023719 72 195 0.0 0.0 0.00 0.00 0.00 87 1023.5
20260831023616 72 195 0.0 0.0 0.00 0.00 0.00 86 1023.5
20260831023514 73 194 0.0 0.0 0.00 0.00 0.00 86 1023.6
20260831023412 72 194 0.0 0.0 0.00 0.00 0.00 86 1023.6
20260831023309 73 194 0.0 0.0 0.00 0.00 0.00 86 1023.6
20260831023208 73 194 0.0 0.0 0.00 0.00 0.00 86 1023.6
20260831023110 73 196 0.0 0.0 0.00 0.00 0.00 86 1023.6
20260831023008 73 197 0.0 0.0 0.00 0.00 0.00 86 1023.6
20260831022908 73 197 0.0 0.0 0.00 0.00 0.00 86 1023.6
20260831022807 73 197 0.0 0.0 0.00 0.00 0.00 87 1023.6
20260831022704 73 197 0.0 0.0 0.00 0.00 0.00 87 1023.6
20260831022606 73 202 0.0 0.0 0.00 0.00 0.00 87 1023.7
20260831022502 73 202 0.0 0.0 0.00 0.00 0.00 87 1023.7
20260831022354 73 202 0.0 0.0 0.00 0.00 0.00 86 1023.7
20260831022254 73 202 0.0 0.0 0.00 0.00 0.00 86 1023.7
20260831022152 73 202 0.0 0.0 0.00 0.00 0.00 86 1023.7
20260831022052 73 201 0.0 0.0 0.00 0.00 0.00 86 1023.6
20260831021953 73 201 0.0 0.0 0.00 0.00 0.00 86 1023.6
20260831021852 73 193 0.0 0.0 0.00 0.00 0.00 86 1023.7
20260831021750 73 193 0.0 0.0 0.00 0.00 0.00 86 1023.6
20260831021651 73 193 0.0 0.0 0.00 0.00 0.00 86 1023.6
20260831021549 73 193 0.0 0.0 0.00 0.00 0.00 86 1023.5
20260831021447 73 193 0.0 0.0 0.00 0.00 0.00 86 1023.6
20260831021347 73 193 0.0 0.0 0.00 0.00 0.00 86 1023.6
20260831021244 73 193 0.0 0.0 0.00 0.00 0.00 86 1023.5
20260831021144 73 194 0.0 0.0 0.00 0.00 0.00 86 1023.5
20260831021043 73 215 0.0 0.0 0.00 0.00 0.00 86 1023.5
20260831020940 73 187 0.0 0.0 0.00 0.00 0.00 87 1023.3
20260831020832 73 202 0.0 0.0 0.00 0.00 0.00 87 1023.3
20260831020731 73 202 0.0 0.0 0.00 0.00 0.00 86 1023.5
20260831020630 73 206 0.0 0.0 0.00 0.00 0.00 86 1023.5
20260831020531 73 201 0.0 0.0 0.00 0.00 0.00 87 1023.5
20260831020430 73 196 0.0 0.0 0.00 0.00 0.00 87 1023.5
20260831020332 73 200 0.0 0.0 0.00 0.00 0.00 87 1023.5
20260831020228 73 182 0.0 0.0 0.00 0.00 0.00 87 1023.3
20260831020129 73 182 0.0 0.0 0.00 0.00 0.00 87 1023.6
20260831020026 73 188 0.0 0.0 0.00 0.00 0.00 87 1023.5
20260831015925 73 188 0.0 0.0 0.00 0.00 0.00 87 1023.5
20260831015824 73 190 0.0 0.0 0.00 0.00 0.00 87 1023.5
20260831015723 73 190 0.0 0.0 0.00 0.00 0.00 87 1023.6
20260831015620 73 189 0.0 0.0 0.00 0.00 0.00 87 1023.5
20260831015521 73 180 0.0 0.0 0.00 0.00 0.00 87 1023.6
20260831015420 73 179 0.0 0.0 0.00 0.00 0.00 87 1023.6
20260831015320 73 179 0.0 0.0 0.00 0.00 0.00 87 1023.6
20260831015220 73 178 0.0 0.0 0.00 0.00 0.00 87 1023.6
20260831015119 73 176 0.0 0.0 0.00 0.00 0.00 87 1023.6
20260831015019 73 186 0.0 0.0 0.00 0.00 0.00 87 1023.7
20260831014918 73 186 0.0 0.0 0.00 0.00 0.00 87 1023.7
20260831014816 73 192 0.0 0.0 0.00 0.00 0.00 87 1023.6
20260831014715 73 192 0.0 0.0 0.00 0.00 0.00 87 1023.6
20260831014611 73 190 0.0 0.0 0.00 0.00 0.00 87 1023.6
20260831014513 73 194 0.0 0.0 0.00 0.00 0.00 87 1023.6
20260831014412 73 195 0.0 0.0 0.00 0.00 0.00 87 1023.6
20260831014313 73 197 0.0 0.0 0.00 0.00 0.00 87 1023.6
20260831014213 73 202 0.0 0.0 0.00 0.00 0.00 87 1023.6
20260831014113 73 171 0.0 0.0 0.00 0.00 0.00 87 1023.5
20260831014011 73 185 0.0 0.0 0.00 0.00 0.00 87 1023.6
20260831013910 73 192 0.0 0.0 0.00 0.00 0.00 87 1023.5
20260831013810 73 180 0.0 0.0 0.00 0.00 0.00 87 1023.6
20260831013710 73 180 0.0 0.0 0.00 0.00 0.00 87 1023.5
20260831013604 73 181 0.0 0.0 0.00 0.00 0.00 87 1023.6
20260831013505 73 182 0.0 0.0 0.00 0.00 0.00 87 1023.5
20260831013405 73 182 0.0 0.0 0.00 0.00 0.00 87 1023.5
20260831013305 73 167 0.0 0.0 0.00 0.00 0.00 87 1023.3
20260831013205 73 198 0.0 0.0 0.00 0.00 0.00 87 1023.3
20260831013104 73 198 0.0 0.0 0.00 0.00 0.00 87 1023.3
20260831013002 73 198 0.0 0.0 0.00 0.00 0.00 87 1023.3
20260831012902 73 198 0.0 0.0 0.00 0.00 0.00 87 1023.5
20260831012800 72 198 0.0 0.0 0.00 0.00 0.00 87 1023.3
20260831012658 72 201 0.0 0.0 0.00 0.00 0.00 87 1023.3
20260831012558 72 193 0.0 0.0 0.00 0.00 0.00 87 1023.3
20260831012457 72 184 0.0 0.0 0.00 0.00 0.00 87 1023.3
20260831012356 72 184 0.0 0.0 0.00 0.00 0.00 87 1023.2
20260831012257 72 184 0.0 0.0 0.00 0.00 0.00 87 1023.1
20260831012156 73 179 0.0 0.0 0.00 0.00 0.00 87 1023.1
20260831012058 72 175 0.0 0.0 0.00 0.00 0.00 87 1023.1
20260831011954 72 175 0.0 0.0 0.00 0.00 0.00 87 1023.1
20260831011854 72 176 0.0 0.0 0.00 0.00 0.00 87 1023.0
20260831011752 72 175 0.0 0.0 0.00 0.00 0.00 87 1023.0
20260831011652 72 175 0.0 0.0 0.00 0.00 0.00 87 1023.0
20260831011552 72 181 0.0 0.0 0.00 0.00 0.00 87 1023.0
20260831011452 72 184 0.0 0.0 0.00 0.00 0.00 87 1023.0
20260831011352 72 184 0.0 0.0 0.00 0.00 0.00 87 1023.0
20260831011250 72 184 0.0 0.0 0.00 0.00 0.00 87 1023.0
20260831011152 73 186 0.0 0.0 0.00 0.00 0.00 87 1022.9
20260831011049 73 186 0.0 0.0 0.00 0.00 0.00 87 1023.0
20260831010947 73 142 0.0 0.0 0.00 0.00 0.00 87 1023.0
20260831010846 73 180 0.0 0.0 0.00 0.00 0.00 87 1023.0
20260831010744 73 180 0.0 0.0 0.00 0.00 0.00 88 1023.0
20260831010644 73 179 0.0 0.0 0.00 0.00 0.00 87 1023.0
20260831010546 73 179 0.0 0.0 0.00 0.00 0.00 87 1023.0
20260831010444 73 179 0.0 0.0 0.00 0.00 0.00 87 1022.9
20260831010342 73 179 0.0 0.0 0.00 0.00 0.00 87 1023.0
20260831010243 73 180 0.0 0.0 0.00 0.00 0.00 87 1023.0
20260831010143 73 176 0.0 0.0 0.00 0.00 0.00 87 1022.9
20260831010041 73 176 0.0 0.0 0.00 0.00 0.00 87 1022.9
20260831005939 73 176 0.0 0.0 0.00 0.00 0.00 87 1022.9
20260831005839 73 175 0.0 0.0 0.00 0.00 0.00 87 1022.8
20260831005736 73 175 0.0 0.0 0.00 0.00 0.00 87 1022.8
20260831005638 73 175 0.0 0.0 0.00 0.00 0.00 87 1022.8
20260831005534 73 176 0.0 0.0 0.00 0.00 0.00 87 1022.7
20260831005433 73 176 0.0 0.0 0.00 0.00 0.00 87 1022.8
20260831005327 73 176 0.0 0.0 0.00 0.00 0.00 87 1022.7
20260831005226 73 175 0.0 0.0 0.00 0.00 0.00 87 1022.7
20260831005125 73 179 0.0 0.0 0.00 0.00 0.00 87 1022.8
20260831005025 73 189 0.0 0.0 0.00 0.00 0.00 87 1022.7
20260831004923 73 188 0.0 0.0 0.00 0.00 0.00 87 1022.7
20260831004823 73 188 0.0 0.0 0.00 0.00 0.00 87 1022.7
20260831004720 73 188 0.0 0.0 0.00 0.00 0.00 87 1022.7
20260831004621 73 188 0.0 0.0 0.00 0.00 0.00 87 1022.6
20260831004519 73 188 0.0 0.0 0.00 0.00 0.00 87 1022.7
20260831004416 73 188 0.0 0.0 0.00 0.00 0.00 87 1022.6
20260831004317 73 188 0.0 0.0 0.00 0.00 0.00 87 1022.6
20260831004214 73 188 0.0 0.0 0.00 0.00 0.00 87 1022.6
20260831004113 73 188 0.0 0.0 0.00 0.00 0.00 87 1022.6
20260831004013 73 188 0.0 0.0 0.00 0.00 0.00 87 1022.6
20260831003910 73 189 0.0 0.0 0.00 0.00 0.00 87 1022.7
20260831003805 73 189 0.0 0.0 0.00 0.00 0.00 87 1022.7
20260831003704 73 189 0.0 0.0 0.00 0.00 0.00 87 1022.6
20260831003604 73 198 0.0 0.0 0.00 0.00 0.00 87 1022.7
20260831003506 73 167 0.0 0.0 0.00 0.00 0.00 87 1022.7
20260831003404 73 173 0.0 0.0 0.00 0.00 0.00 87 1022.6
20260831003303 73 176 0.0 0.0 0.00 0.00 0.00 87 1022.6
20260831003205 73 178 0.0 0.0 0.00 0.00 0.00 87 1022.7
20260831003104 73 178 0.0 0.0 0.00 0.00 0.00 87 1022.6
20260831003005 73 178 0.0 0.0 0.00 0.00 0.00 87 1022.6
20260831002904 73 178 0.0 0.0 0.00 0.00 0.00 87 1022.6
20260831002804 73 178 0.0 0.0 0.00 0.00 0.00 87 1022.6
20260831002705 73 180 0.0 0.0 0.00 0.00 0.00 87 1022.6
20260831002604 73 195 0.0 0.0 0.00 0.00 0.00 87 1022.6
20260831002504 73 196 0.0 0.0 0.00 0.00 0.00 87 1022.6
20260831002403 73 198 0.0 0.0 0.00 0.00 0.00 87 1022.6
20260831002306 73 181 0.0 0.0 0.00 0.00 0.00 87 1022.6
20260831002203 74 174 0.0 0.0 0.00 0.00 0.00 87 1022.6
20260831002058 74 174 0.0 0.0 0.00 0.00 0.00 87 1022.6
20260831001957 74 174 0.0 0.0 0.00 0.00 0.00 87 1022.7
20260831001857 74 174 0.0 0.0 0.00 0.00 0.00 86 1022.6
20260831001757 74 174 0.0 0.0 0.00 0.00 0.00 86 1022.6
20260831001656 74 169 0.0 0.0 0.00 0.00 0.00 86 1022.5
20260831001557 74 180 0.0 0.0 0.00 0.00 0.00 87 1022.5
20260831001456 74 150 0.0 0.0 0.00 0.00 0.00 87 1022.6
20260831001356 74 207 0.0 0.0 0.00 0.00 0.00 87 1022.6
20260831001257 74 207 0.0 0.0 0.00 0.00 0.00 87 1022.6
20260831001157 74 206 0.0 0.0 0.00 0.00 0.00 86 1022.6
20260831001054 74 207 0.0 0.0 0.00 0.00 0.00 86 1022.6
20260831000952 74 194 0.0 0.0 0.00 0.00 0.00 86 1022.5
20260831000850 74 169 0.0 0.0 0.00 0.00 0.00 86 1022.5
20260831000750 74 169 0.0 0.0 0.00 0.00 0.00 86 1022.5
20260831000649 74 169 0.0 0.0 0.00 0.00 0.00 86 1022.5
20260831000549 74 167 0.0 0.0 0.00 0.00 0.00 86 1022.5
20260831000447 74 188 0.0 0.0 0.00 0.00 0.00 86 1022.5
20260831000347 74 188 0.0 0.0 0.00 0.00 0.00 86 1022.5
20260831000248 74 188 0.0 0.0 0.00 0.00 0.00 86 1022.7
20260831000147 74 188 0.0 0.0 0.00 0.00 0.00 86 1022.5
20260831000047 74 188 0.0 0.0 0.00 0.00 0.00 86 1022.5
20260830235945 74 189 0.0 0.0 0.00 0.00 0.00 86 1022.5
20260830235845 74 205 0.0 0.0 0.00 0.00 0.00 87 1022.5
20260830235742 74 202 0.0 0.0 0.00 0.00 0.00 87 1022.4
20260830235643 74 202 0.0 0.0 0.00 0.00 0.00 86 1022.5
20260830235541 74 202 0.0 0.0 0.00 0.00 0.00 86 1022.6
20260830235440 74 208 0.0 0.0 0.00 0.00 0.00 86 1022.5
20260830235337 74 216 0.0 0.0 0.00 0.00 0.00 86 1022.6
20260830235239 74 217 0.0 0.0 0.00 0.00 0.00 86 1022.6
20260830235139 74 217 0.0 0.0 0.00 0.00 0.00 86 1022.6
20260830235039 74 217 0.0 0.0 0.00 0.00 0.00 86 1022.5
20260830234937 74 217 0.0 0.0 0.00 0.00 0.00 86 1022.5
20260830234837 74 217 0.0 0.0 0.00 0.00 0.00 86 1022.5
20260830234734 75 217 0.0 0.0 0.00 0.00 0.00 86 1022.5
20260830234635 75 217 0.0 0.0 0.00 0.00 0.00 86 1022.6
20260830234533 75 217 0.0 0.0 0.00 0.00 0.00 86 1022.5
20260830234431 75 217 0.0 0.0 0.00 0.00 0.00 86 1022.5
20260830234331 75 217 0.0 0.0 0.00 0.00 0.00 86 1022.5
20260830234229 75 217 0.0 0.0 0.00 0.00 0.00 86 1022.6
20260830234129 75 217 0.0 0.0 0.00 0.00 0.00 86 1022.5
20260830234027 75 217 0.0 0.0 0.00 0.00 0.00 86 1022.5
20260830233925 75 217 0.0 0.0 0.00 0.00 0.00 86 1022.5
20260830233817 75 217 0.0 0.0 0.00 0.00 0.00 85 1022.5
20260830233718 75 217 0.0 0.0 0.00 0.00 0.00 85 1022.6
20260830233616 75 217 0.0 0.0 0.00 0.00 0.00 85 1022.6
20260830233517 75 217 0.0 0.0 0.00 0.00 0.00 85 1022.5
20260830233414 75 217 0.0 0.0 0.00 0.00 0.00 85 1022.5
20260830233308 75 217 0.0 0.0 0.00 0.00 0.00 85 1022.6
20260830233208 75 217 0.0 0.0 0.00 0.00 0.00 85 1022.6
20260830233109 76 228 0.0 0.0 0.00 0.00 0.00 85 1022.5
20260830233007 76 238 0.0 0.0 0.00 0.00 0.00 85 1022.5
20260830232908 76 267 0.0 0.0 0.00 0.00 0.00 85 1022.5
20260830232805 76 269 0.0 0.0 0.00 0.00 0.00 85 1022.5
20260830232707 76 269 0.0 0.0 0.00 0.00 0.00 85 1022.6
20260830232606 76 269 0.0 0.0 0.00 0.00 0.00 84 1022.6
20260830232505 76 271 0.0 0.0 0.00 0.00 0.00 84 1022.6
20260830232404 76 280 0.0 0.0 0.00 0.00 0.00 84 1022.6
20260830232306 76 211 0.0 0.0 0.00 0.00 0.00 84 1022.6
20260830232204 76 211 0.0 0.0 0.00 0.00 0.00 84 1022.6
20260830232104 76 229 0.0 0.0 0.00 0.00 0.00 84 1022.5
20260830232005 76 199 0.0 0.0 0.00 0.00 0.00 84 1022.6
20260830231905 76 11 0.0 0.0 0.00 0.00 0.00 84 1022.6
20260830231804 76 69 0.0 0.0 0.00 0.00 0.00 84 1022.6
20260830231702 76 68 0.0 0.0 0.00 0.00 0.00 83 1022.7
20260830231602 76 101 0.0 0.0 0.00 0.00 0.00 83 1022.7
20260830231500 76 134 0.0 0.0 0.00 0.00 0.00 83 1022.7
20260830231400 76 103 0.0 0.0 0.00 0.00 0.00 83 1022.7
20260830231300 76 103 0.0 0.0 0.00 0.00 0.00 84 1022.7
20260830231200 76 103 0.0 0.0 0.00 0.00 0.00 84 1022.7
20260830231101 76 103 0.0 0.0 0.00 0.00 0.00 83 1022.7
20260830230958 77 103 0.0 0.0 0.00 0.00 0.00 83 1022.6
20260830230858 77 145 0.0 0.0 0.00 0.00 0.00 83 1022.6
20260830230757 77 128 0.0 0.0 0.00 0.00 0.00 83 1022.6
20260830230655 77 128 0.0 0.0 0.00 0.00 0.00 83 1022.6
20260830230548 77 127 0.0 0.0 0.00 0.00 0.00 83 1022.6
20260830230449 77 127 0.0 0.0 0.00 0.00 0.00 83 1022.5
20260830230348 77 127 0.0 0.0 0.00 0.00 0.00 83 1022.6
20260830230247 77 121 0.0 0.0 0.00 0.00 0.00 83 1022.5
20260830230144 77 170 0.0 0.0 0.00 0.00 0.00 83 1022.5
20260830230045 77 182 0.0 0.0 0.00 0.00 0.00 83 1022.5
20260830225942 77 186 0.0 0.0 0.00 0.00 0.00 83 1022.5
20260830225843 77 185 0.0 0.0 0.00 0.00 0.00 83 1022.5
20260830225740 77 185 0.0 0.0 0.00 0.00 0.00 83 1022.5
20260830225638 77 185 0.0 0.0 0.00 0.00 0.00 82 1022.5
20260830225538 77 185 0.0 0.0 0.00 0.00 0.00 82 1022.6
20260830225437 77 186 0.0 0.0 0.00 0.00 0.00 82 1022.5
20260830225335 77 185 0.0 0.0 0.00 0.00 0.00 81 1022.5
20260830225235 77 184 0.0 0.0 0.00 0.00 0.00 82 1022.4
20260830225132 77 162 0.0 0.0 0.00 0.00 0.00 82 1022.5
20260830225027 77 162 0.0 0.0 0.00 0.00 0.00 81 1022.5
20260830224926 77 161 0.0 0.0 0.00 0.00 0.00 81 1022.4
20260830224827 77 165 0.0 0.0 0.00 0.00 0.00 81 1022.4
20260830224725 77 256 0.0 0.0 0.00 0.00 0.00 81 1022.4
20260830224623 78 256 0.0 0.0 0.00 0.00 0.00 81 1022.4
20260830224522 78 180 0.0 0.0 0.00 0.00 0.00 81 1022.4
20260830224421 78 186 0.0 0.0 0.00 0.00 0.00 81 1022.3
20260830224320 78 182 0.0 0.0 0.00 0.00 0.00 81 1022.4
20260830224219 78 183 0.0 0.0 0.00 0.00 0.00 81 1022.4
20260830224117 78 183 0.0 0.0 0.00 0.00 0.00 81 1022.3
20260830224016 78 184 0.0 0.0 0.00 0.00 0.00 81 1022.4
20260830223915 78 182 0.0 0.0 0.00 0.00 0.00 81 1022.3
20260830223811 78 177 0.0 0.0 0.00 0.00 0.00 81 1022.3
20260830223713 78 166 0.0 0.0 0.00 0.00 0.00 81 1022.3
20260830223611 78 167 0.0 0.0 0.00 0.00 0.00 80 1022.3
20260830223505 78 163 0.0 0.0 0.00 0.00 0.00 80 1022.3
20260830223403 78 166 0.0 0.0 0.00 0.00 0.00 80 1022.4
20260830223305 78 166 0.0 0.0 0.00 0.00 0.00 80 1022.3
20260830223202 78 166 0.0 0.0 0.00 0.00 0.00 80 1022.4
20260830223100 78 165 0.0 0.0 0.00 0.00 0.00 80 1022.4
20260830222957 78 165 0.0 0.0 0.00 0.00 0.00 79 1022.4
20260830222855 79 165 0.0 0.0 0.00 0.00 0.00 80 1022.4
20260830222753 79 160 0.0 0.0 0.00 0.00 0.00 80 1022.5
20260830222655 79 160 0.0 0.0 0.00 0.00 0.00 80 1022.4
20260830222554 79 160 0.0 0.0 0.00 0.00 0.00 79 1022.5
20260830222449 79 160 0.0 0.0 0.00 0.00 0.00 79 1022.4
20260830222351 79 159 0.0 0.0 0.00 0.00 0.00 78 1022.5
20260830222249 79 171 0.0 0.0 0.00 0.00 0.00 78 1022.4
20260830222151 79 170 0.0 0.0 0.00 0.00 0.00 78 1022.4
20260830222048 79 177 0.0 0.0 0.00 0.00 0.00 78 1022.4
20260830221940 79 167 0.0 0.0 0.00 0.00 0.00 78 1022.4
20260830221841 79 190 0.0 0.0 0.00 0.00 0.00 78 1022.3
20260830221739 79 160 0.0 0.0 0.00 0.00 0.00 78 1022.3
20260830221640 79 160 0.0 0.0 0.00 0.00 0.00 78 1022.4
20260830221539 80 140 0.0 0.0 0.00 0.00 0.00 78 1022.4
20260830221438 80 161 0.0 0.0 0.00 0.00 0.00 78 1022.5
20260830221336 80 161 0.0 0.0 0.00 0.00 0.00 78 1022.5
20260830221236 80 163 0.0 0.0 0.00 0.00 0.00 78 1022.6
20260830221135 80 152 0.0 0.0 0.00 0.00 0.00 78 1022.5
20260830221033 80 134 0.0 0.0 0.00 0.00 0.00 77 1022.5
20260830220930 80 133 0.0 0.0 0.00 0.00 0.00 78 1022.5
20260830220831 80 133 0.0 0.0 0.00 0.00 0.00 78 1022.5
20260830220729 80 133 0.0 0.0 0.00 0.00 0.00 78 1022.5
20260830220629 80 132 0.0 0.0 0.00 0.00 0.00 78 1022.5
20260830220526 80 126 0.0 0.0 0.00 0.00 0.00 78 1022.5
20260830220421 80 126 0.0 0.0 0.00 0.00 0.00 78 1022.4
20260830220320 80 126 0.0 0.0 0.00 0.00 0.00 77 1022.5
20260830220220 80 126 0.0 0.0 0.00 0.00 0.00 77 1022.5
20260830220119 80 126 0.0 0.0 0.00 0.00 0.00 78 1022.5
20260830220017 80 126 0.0 0.0 0.00 0.00 0.00 78 1022.5
20260830215916 80 119 0.0 0.0 0.00 0.00 0.00 78 1022.4
20260830215814 80 120 0.0 0.0 0.00 0.00 0.00 77 1022.5
20260830215714 80 119 0.0 0.0 0.00 0.00 0.00 77 1022.4
20260830215613 80 138 0.0 0.0 0.00 0.00 0.00 78 1022.4
20260830215510 80 154 0.0 0.0 0.00 0.00 0.00 77 1022.4
20260830215406 80 123 0.0 0.0 0.00 0.00 0.00 77 1022.5
20260830215306 80 189 0.0 0.0 0.00 0.00 0.00 77 1022.5
20260830215206 80 222 0.0 0.0 0.00 0.00 0.00 77 1022.5
20260830215107 80 181 0.0 0.0 0.00 0.00 0.00 77 1022.6
20260830215005 80 197 0.0 0.0 0.00 0.00 0.00 77 1022.5
20260830214857 80 129 0.0 0.0 0.00 0.00 0.00 77 1022.6
20260830214754 80 128 0.0 0.0 0.00 0.00 0.00 77 1022.6
20260830214655 80 129 0.0 0.0 0.00 0.00 0.00 77 1022.5
20260830214555 80 157 0.0 0.0 0.00 0.00 0.00 77 1022.6
20260830214454 81 172 0.0 0.0 0.00 0.00 0.00 77 1022.6
20260830214354 81 174 0.0 0.0 0.00 0.00 0.00 76 1022.6
20260830214253 81 182 0.0 0.0 0.00 0.00 0.00 76 1022.6
20260830214155 81 185 0.0 0.0 0.00 0.00 0.00 77 1022.6
20260830214054 81 186 0.0 0.0 0.00 0.00 0.00 77 1022.5
20260830213954 81 190 0.0 0.0 0.00 0.00 0.00 77 1022.5
20260830213853 81 190 0.0 0.0 0.00 0.00 0.00 76 1022.5
20260830213750 81 153 0.0 0.0 0.00 0.00 0.00 76 1022.4
20260830213648 81 162 0.0 0.0 0.00 0.00 0.00 76 1022.4
20260830213547 81 161 0.0 0.0 0.00 0.00 0.00 76 1022.4
20260830213449 81 160 0.0 0.0 0.00 0.00 0.00 76 1022.5
20260830213346 81 157 0.0 0.0 0.00 0.00 0.00 77 1022.6
20260830213244 81 157 0.0 0.0 0.00 0.00 0.00 77 1022.6
20260830213144 81 150 0.0 0.0 0.00 0.00 0.00 78 1022.6
20260830213042 81 175 0.0 0.0 0.00 0.00 0.00 77 1022.5
20260830212942 81 183 0.0 0.0 0.00 0.00 0.00 78 1022.5
20260830212840 81 184 0.0 0.0 0.00 0.00 0.00 77 1022.4
20260830212738 81 184 0.0 0.0 0.00 0.00 0.00 78 1022.5
20260830212638 81 184 0.0 0.0 0.00 0.00 0.00 79 1022.6
20260830212536 81 184 0.0 0.0 0.00 0.00 0.00 78 1022.5
20260830212434 81 185 0.0 0.0 0.00 0.00 0.00 78 1022.6
20260830212333 81 185 0.0 0.0 0.00 0.00 0.00 78 1022.6
20260830212235 81 185 0.0 0.0 0.00 0.00 0.00 78 1022.5
20260830212133 81 185 0.0 0.0 0.00 0.00 0.00 77 1022.5
20260830212034 81 185 0.0 0.0 0.00 0.00 0.00 77 1022.5
20260830211934 81 185 0.0 0.0 0.00 0.00 0.00 77 1022.5
20260830211833 81 191 0.0 0.0 0.00 0.00 0.00 77 1022.4
20260830211735 81 198 0.0 0.0 0.00 0.00 0.00 77 1022.5
20260830211633 81 198 0.0 0.0 0.00 0.00 0.00 76 1022.4
20260830211533 81 126 0.0 0.0 0.00 0.00 0.00 77 1022.5
20260830211430 81 152 0.0 0.0 0.00 0.00 0.00 77 1022.5
20260830211331 81 153 0.0 0.0 0.00 0.00 0.00 77 1022.5
20260830211228 81 186 0.0 0.0 0.00 0.00 0.00 76 1022.6
20260830211123 81 177 0.0 0.0 0.00 0.00 0.00 76 1022.5
20260830211023 81 182 0.0 0.0 0.00 0.00 0.00 76 1022.4
20260830210924 81 190 0.0 0.0 0.00 0.00 0.00 77 1022.4
20260830210824 81 171 0.0 0.0 0.00 0.00 0.00 77 1022.5
20260830210723 81 169 0.0 0.0 0.00 0.00 0.00 77 1022.5
20260830210619 81 180 0.0 0.0 0.00 0.00 0.00 76 1022.5
20260830210521 81 148 0.0 0.0 0.00 0.00 0.00 77 1022.5
20260830210417 81 196 0.0 0.0 0.00 0.00 0.00 77 1022.5
20260830210318 81 162 0.0 0.0 0.00 0.00 0.00 78 1022.5
20260830210218 81 205 0.0 0.0 0.00 0.00 0.00 78 1022.5
20260830210119 81 132 0.0 0.0 0.00 0.00 0.00 76 1022.5
20260830210017 81 154 0.0 0.0 0.00 0.00 0.00 77 1022.5
20260830205919 81 133 0.0 0.0 0.00 0.00 0.00 76 1022.4
20260830205817 81 140 0.0 0.0 0.00 0.00 0.00 77 1022.6
20260830205718 81 202 0.0 0.0 0.00 0.00 0.00 77 1022.5
20260830205619 81 155 0.0 0.0 0.00 0.00 0.00 76 1022.5
20260830205516 81 136 0.0 0.0 0.00 0.00 0.00 76 1022.6
20260830205416 81 135 0.0 0.0 0.00 0.00 0.00 75 1022.6
20260830205315 81 135 0.0 0.0 0.00 0.00 0.00 75 1022.6
20260830205213 82 135 0.0 0.0 0.00 0.00 0.00 75 1022.6
20260830205113 82 139 0.0 0.0 0.00 0.00 0.00 76 1022.6
20260830205010 82 139 0.0 0.0 0.00 0.00 0.00 76 1022.7
20260830204910 82 139 0.0 0.0 0.00 0.00 0.00 75 1022.6
20260830204809 82 142 0.0 0.0 0.00 0.00 0.00 76 1022.6
20260830204708 82 146 0.0 0.0 0.00 0.00 0.00 76 1022.6
20260830204608 82 146 0.0 0.0 0.00 0.00 0.00 75 1022.6
20260830204508 82 142 0.0 0.0 0.00 0.00 0.00 76 1022.7
20260830204402 82 142 0.0 0.0 0.00 0.00 0.00 77 1022.6
20260830204302 82 183 0.0 0.0 0.00 0.00 0.00 75 1022.6
20260830204201 82 205 0.0 0.0 0.00 0.00 0.00 74 1022.6
20260830204102 82 180 0.0 0.0 0.00 0.00 0.00 75 1022.7
20260830204003 82 179 0.0 0.0 0.00 0.00 0.00 75 1022.7
20260830203859 82 146 0.0 0.0 0.00 0.00 0.00 75 1022.6
20260830203800 82 110 0.0 0.0 0.00 0.00 0.00 75 1022.6
20260830203700 82 130 0.0 0.0 0.00 0.00 0.00 75 1022.6
20260830203558 82 130 0.0 0.0 0.00 0.00 0.00 73 1022.6
20260830203457 82 143 0.0 0.0 0.00 0.00 0.00 75 1022.6
20260830203354 82 167 0.0 0.0 0.00 0.00 0.00 76 1022.6
20260830203253 82 142 0.0 0.0 0.00 0.00 0.00 76 1022.5
20260830203155 82 153 0.0 0.0 0.00 0.00 0.00 75 1022.5
20260830203055 82 138 0.0 0.0 0.00 0.00 0.00 76 1022.6
20260830202952 82 110 0.0 0.0 0.00 0.00 0.00 75 1022.7
20260830202852 82 164 0.0 0.0 0.00 0.00 0.00 75 1022.6
20260830202750 82 169 0.0 0.0 0.00 0.00 0.00 76 1022.6
20260830202651 82 158 0.0 0.0 0.00 0.00 0.00 76 1022.7
20260830202549 82 148 0.0 0.0 0.00 0.00 0.00 74 1022.6
20260830202447 82 152 0.0 0.0 0.00 0.00 0.00 74 1022.6
20260830202347 82 163 0.0 0.0 0.00 0.00 0.00 77 1022.5
20260830202243 82 184 0.0 0.0 0.00 0.00 0.00 77 1022.6
20260830202145 82 157 0.0 0.0 0.00 0.00 0.00 76 1022.6
20260830202042 82 155 0.0 0.0 0.00 0.00 0.00 76 1022.6
20260830201941 81 151 0.0 0.0 0.00 0.00 0.00 76 1022.7
20260830201843 81 146 0.0 0.0 0.00 0.00 0.00 75 1022.7
20260830201742 81 163 0.0 0.0 0.00 0.00 0.00 74 1022.7
20260830201640 81 121 0.0 0.0 0.00 0.00 0.00 77 1022.7
20260830201540 81 170 0.0 0.0 0.00 0.00 0.00 76 1022.7
20260830201439 81 204 0.0 0.0 0.00 0.00 0.00 76 1022.8
20260830201339 81 151 0.0 0.0 0.00 0.00 0.00 76 1022.9
20260830201241 81 174 0.0 0.0 0.00 0.00 0.00 75 1022.8
20260830201131 81 155 0.0 0.0 0.00 0.00 0.00 75 1022.8
20260830201029 81 159 0.0 0.0 0.00 0.00 0.00 77 1022.8
20260830200928 81 165 0.0 0.0 0.00 0.00 0.00 78 1022.8
20260830200829 81 113 0.0 0.0 0.00 0.00 0.00 77 1022.7
20260830200726 81 113 0.0 0.0 0.00 0.00 0.00 77 1022.7
20260830200619 81 109 0.0 0.0 0.00 0.00 0.00 77 1022.7
20260830200519 81 171 0.0 0.0 0.00 0.00 0.00 76 1022.7
20260830200421 81 115 0.0 0.0 0.00 0.00 0.00 76 1022.8
20260830200319 80 121 0.0 0.0 0.00 0.00 0.00 75 1022.8
20260830200221 80 141 0.0 0.0 0.00 0.00 0.00 77 1022.8
20260830200120 80 174 0.0 0.0 0.00 0.00 0.00 78 1022.7
20260830200020 80 188 0.0 0.0 0.00 0.00 0.00 78 1022.7
20260830195920 80 187 0.0 0.0 0.00 0.00 0.00 79 1022.9
20260830195818 80 142 0.0 0.0 0.00 0.00 0.00 78 1022.8
20260830195717 80 138 0.0 0.0 0.00 0.00 0.00 78 1022.8
20260830195617 80 110 0.0 0.0 0.00 0.00 0.00 78 1022.8
20260830195515 80 119 0.0 0.0 0.00 0.00 0.00 77 1022.9
20260830195411 80 116 0.0 0.0 0.00 0.00 0.00 79 1023.0
20260830195312 80 134 0.0 0.0 0.00 0.00 0.00 78 1023.0
20260830195209 80 109 0.0 0.0 0.00 0.00 0.00 78 1023.0
20260830195109 80 107 0.0 0.0 0.00 0.00 0.00 78 1022.9
20260830195009 80 157 0.0 0.0 0.00 0.00 0.00 78 1023.0
20260830194908 80 128 0.0 0.0 0.00 0.00 0.00 78 1023.0
20260830194807 80 130 0.0 0.0 0.00 0.00 0.00 77 1023.0
20260830194707 80 124 0.0 0.0 0.00 0.00 0.00 77 1023.1
20260830194608 80 119 0.0 0.0 0.00 0.00 0.00 77 1023.1
20260830194507 80 117 0.0 0.0 0.00 0.00 0.00 77 1023.1
20260830194407 80 111 0.0 0.0 0.00 0.00 0.00 77 1023.1
20260830194308 81 113 0.0 0.0 0.00 0.00 0.00 77 1023.0
20260830194207 81 116 0.0 0.0 0.00 0.00 0.00 76 1023.1
20260830194109 81 112 0.0 0.0 0.00 0.00 0.00 77 1023.1
20260830194007 81 147 0.0 0.0 0.00 0.00 0.00 76 1023.1
20260830193908 81 115 0.0 0.0 0.00 0.00 0.00 77 1023.1
20260830193808 81 146 0.0 0.0 0.00 0.00 0.00 77 1023.1
20260830193708 81 198 0.0 0.0 0.00 0.00 0.00 76 1023.1
20260830193609 81 160 0.0 0.0 0.00 0.00 0.00 77 1023.2
20260830193508 81 128 0.0 0.0 0.00 0.00 0.00 78 1023.1
20260830193407 81 108 0.0 0.0 0.00 0.00 0.00 77 1023.2
20260830193308 81 161 0.0 0.0 0.00 0.00 0.00 78 1023.2
20260830193208 81 183 0.0 0.0 0.00 0.00 0.00 77 1023.2
20260830193108 81 136 0.0 0.0 0.00 0.00 0.00 77 1023.2
20260830193004 81 159 0.0 0.0 0.00 0.00 0.00 78 1023.2
20260830192904 81 138 0.0 0.0 0.00 0.00 0.00 78 1023.2
20260830192804 81 109 0.0 0.0 0.00 0.00 0.00 78 1023.2
20260830192704 81 129 0.0 0.0 0.00 0.00 0.00 78 1023.2
20260830192604 81 98 0.0 0.0 0.00 0.00 0.00 78 1023.2
20260830192503 81 115 0.0 0.0 0.00 0.00 0.00 79 1023.2
20260830192404 81 117 0.0 0.0 0.00 0.00 0.00 80 1023.3
20260830192305 81 123 0.0 0.0 0.00 0.00 0.00 77 1023.2
20260830192203 81 108 0.0 0.0 0.00 0.00 0.00 79 1023.3
20260830192104 81 133 0.0 0.0 0.00 0.00 0.00 79 1023.2
20260830192004 81 98 0.0 0.0 0.00 0.00 0.00 78 1023.3
20260830191904 81 111 0.0 0.0 0.00 0.00 0.00 77 1023.3
20260830191803 81 123 0.0 0.0 0.00 0.00 0.00 76 1023.2
20260830191704 81 182 0.0 0.0 0.00 0.00 0.00 76 1023.3
20260830191603 81 150 0.0 0.0 0.00 0.00 0.00 76 1023.3
20260830191504 81 213 0.0 0.0 0.00 0.00 0.00 77 1023.5
20260830191405 81 76 0.0 0.0 0.00 0.00 0.00 77 1023.5
20260830191304 81 74 0.0 0.0 0.00 0.00 0.00 77 1023.3
20260830191203 81 71 0.0 0.0 0.00 0.00 0.00 77 1023.3
20260830191105 81 71 0.0 0.0 0.00 0.00 0.00 77 1023.3
20260830191004 81 68 0.0 0.0 0.00 0.00 0.00 75 1023.3
20260830190904 81 68 0.0 0.0 0.00 0.00 0.00 77 1023.2
20260830190804 81 99 0.0 0.0 0.00 0.00 0.00 79 1023.5
20260830190705 81 99 0.0 0.0 0.00 0.00 0.00 77 1023.3
20260830190604 81 99 0.0 0.0 0.00 0.00 0.00 76 1023.3
20260830190504 81 99 0.0 0.0 0.00 0.00 0.00 75 1023.5
20260830190404 82 99 0.0 0.0 0.00 0.00 0.00 75 1023.3
20260830190305 82 100 0.0 0.0 0.00 0.00 0.00 75 1023.5
20260830190204 82 111 0.0 0.0 0.00 0.00 0.00 75 1023.6
20260830190104 82 112 0.0 0.0 0.00 0.00 0.00 76 1023.6
20260830190005 82 111 0.0 0.0 0.00 0.00 0.00 76 1023.5
20260830185903 82 158 0.0 0.0 0.00 0.00 0.00 75 1023.6
20260830185805 82 158 0.0 0.0 0.00 0.00 0.00 75 1023.6
20260830185659 82 158 0.0 0.0 0.00 0.00 0.00 77 1023.6
20260830185601 82 87 0.0 0.0 0.00 0.00 0.00 75 1023.7
20260830185459 82 87 0.0 0.0 0.00 0.00 0.00 76 1023.6
20260830185400 81 259 0.0 0.0 0.00 0.00 0.00 77 1023.7
20260830185300 81 259 0.0 0.0 0.00 0.00 0.00 76 1023.7
20260830185201 81 259 0.0 0.0 0.00 0.00 0.00 77 1023.7
20260830185059 81 180 0.0 0.0 0.00 0.00 0.00 78 1023.6
20260830185001 81 161 0.0 0.0 0.00 0.00 0.00 76 1023.7
20260830184859 81 161 0.0 0.0 0.00 0.00 0.00 76 1023.7
20260830184759 81 161 0.0 0.0 0.00 0.00 0.00 75 1023.7
20260830184701 81 161 0.0 0.0 0.00 0.00 0.00 77 1023.7
20260830184558 81 161 0.0 0.0 0.00 0.00 0.00 76 1023.7
20260830184501 81 162 0.0 0.0 0.00 0.00 0.00 78 1023.7
20260830184401 81 162 0.0 0.0 0.00 0.00 0.00 77 1023.7
20260830184300 81 161 0.0 0.0 0.00 0.00 0.00 76 1023.8
20260830184159 81 152 0.0 0.0 0.00 0.00 0.00 77 1023.8
20260830184101 81 185 0.0 0.0 0.00 0.00 0.00 78 1023.9
20260830184000 81 185 0.0 0.0 0.00 0.00 0.00 78 1023.9
20260830183859 80 186 0.0 0.0 0.00 0.00 0.00 78 1023.9
20260830183800 80 188 0.0 1.7 0.00 0.00 0.00 79 1024.0
20260830183701 80 155 0.9 3.5 0.00 0.00 0.00 80 1024.0
20260830183559 80 112 0.9 3.5 0.00 0.00 0.00 79 1023.9
20260830183500 80 94 0.9 3.5 0.00 0.00 0.00 81 1024.1
20260830183359 80 87 0.9 3.5 0.00 0.00 0.00 79 1024.0
20260830183300 80 99 1.7 3.5 0.00 0.00 0.00 80 1024.0
20260830183201 80 101 1.7 3.5 0.00 0.00 0.00 80 1024.1
20260830183100 80 57 1.7 3.5 0.00 0.00 0.00 80 1024.1
20260830182959 80 51 1.7 3.5 0.00 0.00 0.00 80 1024.1
20260830182900 80 51 1.7 3.5 0.00 0.00 0.00 78 1024.1
20260830182800 80 51 1.7 3.5 0.00 0.00 0.00 79 1024.2
20260830182659 80 51 1.7 3.5 0.00 0.00 0.00 79 1024.1
20260830182559 80 50 1.7 3.5 0.00 0.00 0.00 79 1024.1
20260830182500 80 46 0.9 3.5 0.00 0.00 0.00 81 1024.2
20260830182355 79 31 0.9 3.5 0.00 0.00 0.00 81 1024.2
20260830182255 79 22 0.9 3.5 0.00 0.00 0.00 81 1024.2
20260830182156 79 5 0.9 3.5 0.00 0.00 0.00 81 1024.2
20260830182055 79 5 0.0 3.5 0.00 0.00 0.00 81 1024.2
20260830181957 79 328 0.0 3.5 0.00 0.00 0.00 80 1024.2
20260830181856 79 327 0.0 3.5 0.00 0.00 0.00 80 1024.2
20260830181755 79 348 0.0 0.0 0.00 0.00 0.00 80 1024.3
20260830181656 79 335 0.0 0.0 0.00 0.00 0.00 81 1024.2
20260830181556 79 350 0.0 0.0 0.00 0.00 0.00 80 1024.3
20260830181456 79 348 0.0 0.0 0.00 0.00 0.00 81 1024.3
20260830181357 79 355 0.0 0.0 0.00 0.00 0.00 82 1024.3
20260830181256 79 298 0.0 0.0 0.00 0.00 0.00 80 1024.3
20260830181157 79 299 0.0 0.0 0.00 0.00 0.00 80 1024.4
20260830181055 79 298 0.0 0.0 0.00 0.00 0.00 80 1024.4
20260830180957 79 301 0.0 0.0 0.00 0.00 0.00 80 1024.4
20260830180856 79 300 0.0 0.0 0.00 0.00 0.00 80 1024.4
20260830180757 79 335 0.0 0.0 0.00 0.00 0.00 80 1024.3
20260830180657 79 335 0.0 0.0 0.00 0.00 0.00 80 1024.4
20260830180556 79 334 0.0 0.0 0.00 0.00 0.00 78 1024.4
20260830180455 79 355 0.0 0.0 0.00 0.00 0.00 79 1024.4
20260830180355 79 355 0.0 0.0 0.00 0.00 0.00 81 1024.4
20260830180255 79 325 0.0 0.0 0.00 0.00 0.00 80 1024.4
20260830180157 79 321 0.0 0.0 0.00 0.00 0.00 81 1024.5
20260830180056 79 320 0.0 0.0 0.00 0.00 0.00 80 1024.5
20260830175956 79 320 0.0 0.0 0.00 0.00 0.00 79 1024.4
20260830175857 79 320 0.0 2.6 0.00 0.00 0.00 79 1024.4
20260830175755 79 24 0.0 2.6 0.00 0.00 0.00 79 1024.5
20260830175655 79 24 0.0 2.6 0.00 0.00 0.00 78 1024.5
20260830175556 79 24 0.0 2.6 0.00 0.00 0.00 78 1024.5
20260830175457 79 26 0.0 2.6 0.00 0.00 0.00 79 1024.4
20260830175355 79 26 0.0 2.6 0.00 0.00 0.00 79 1024.5
20260830175257 79 25 0.0 2.6 0.00 0.00 0.00 79 1024.6
20260830175157 79 25 0.0 2.6 0.00 0.00 0.00 80 1024.6
20260830175051 79 306 0.0 2.6 0.00 0.00 0.00 79 1024.6
20260830174953 79 306 0.0 2.6 0.00 0.00 0.00 79 1024.5
20260830174851 79 307 0.0 2.6 0.00 0.00 0.00 79 1024.6
20260830174752 79 308 0.0 0.0 0.00 0.00 0.00 79 1024.6
20260830174652 79 307 0.0 0.0 0.00 0.00 0.00 79 1024.6
20260830174551 79 309 0.0 0.0 0.00 0.00 0.00 80 1024.6
20260830174452 79 294 0.0 0.0 0.00 0.00 0.00 78 1024.7
20260830174352 79 294 0.0 0.0 0.00 0.00 0.00 79 1024.7
20260830174251 79 290 0.0 0.0 0.00 0.00 0.00 79 1024.7
20260830174152 79 290 0.0 0.0 0.00 0.00 0.00 78 1024.7
20260830174051 79 290 0.0 0.0 0.00 0.00 0.00 78 1024.7
20260830173953 79 290 0.0 0.0 0.00 0.00 0.00 78 1024.8
20260830173851 79 290 0.0 0.0 0.00 0.00 0.00 77 1024.8
20260830173751 79 290 0.0 0.0 0.00 0.00 0.00 78 1024.7
20260830173653 79 290 0.0 0.0 0.00 0.00 0.00 79 1024.8
20260830173551 79 289 0.0 0.0 0.00 0.00 0.00 80 1024.8
20260830173449 79 288 0.0 0.0 0.00 0.00 0.00 79 1024.8
20260830173349 79 288 0.0 0.0 0.00 0.00 0.00 79 1024.8
20260830173250 79 292 0.0 0.0 0.00 0.00 0.00 79 1024.9
20260830173147 79 290 0.0 0.0 0.00 0.00 0.00 80 1024.9
20260830173044 79 346 0.0 0.0 0.00 0.00 0.00 82 1024.9
20260830172944 78 5 0.0 0.0 0.00 0.00 0.00 80 1024.8
20260830172845 78 355 0.0 0.0 0.00 0.00 0.00 81 1024.9
20260830172744 78 0 0.0 0.0 0.00 0.00 0.00 81 1024.9
20260830172638 78 34 0.0 0.0 0.00 0.00 0.00 82 1025.1
20260830172537 78 48 0.0 0.0 0.00 0.00 0.00 83 1025.1
20260830172437 78 48 0.0 0.0 0.00 0.00 0.00 83 1025.1
20260830172336 78 49 0.0 0.0 0.00 0.00 0.00 83 1025.1
20260830172234 78 49 0.0 0.0 0.00 0.00 0.00 81 1025.1
20260830172135 77 49 0.0 0.0 0.00 0.00 0.00 83 1025.1
20260830172031 77 49 0.0 0.0 0.00 0.00 0.00 85 1025.2
20260830171930 77 49 0.0 0.0 0.00 0.00 0.00 84 1024.9
20260830171830 77 49 0.0 0.0 0.00 0.00 0.00 83 1025.1
20260830171727 77 49 0.0 0.0 0.00 0.00 0.00 83 1025.1
20260830171625 77 49 0.0 0.0 0.00 0.00 0.00 83 1025.1
20260830171522 76 48 0.0 0.0 0.00 0.00 0.00 84 1025.1
20260830171422 76 42 0.0 0.0 0.00 0.00 0.00 84 1025.1
20260830171323 76 24 0.0 0.0 0.00 0.00 0.00 85 1025.1
20260830171222 76 296 0.0 0.0 0.00 0.00 0.00 85 1025.2
20260830171117 76 295 0.0 0.0 0.00 0.00 0.00 85 1025.2
20260830171015 76 295 0.0 0.0 0.00 0.00 0.00 85 1025.1
20260830170916 76 296 0.0 0.0 0.00 0.00 0.00 83 1025.2
20260830170813 76 296 0.0 0.0 0.00 0.00 0.00 83 1025.3
20260830170711 76 296 0.0 0.0 0.00 0.00 0.00 84 1025.3
20260830170610 76 309 0.0 0.0 0.00 0.00 0.00 85 1025.3
20260830170511 76 310 0.0 0.0 0.00 0.00 0.00 85 1025.3
20260830170407 76 310 0.0 0.0 0.00 0.00 0.00 85 1025.3
20260830170309 76 333 0.0 0.0 0.00 0.00 0.00 84 1025.3
20260830170206 76 332 0.0 0.0 0.00 0.00 0.00 85 1025.3
20260830170101 76 332 0.0 0.0 0.00 0.00 0.00 84 1025.3
20260830170000 75 355 0.0 0.0 0.00 0.00 0.00 85 1025.4
20260830165901 76 355 0.0 0.0 0.00 0.00 0.00 85 1025.4
20260830165759 75 355 0.0 0.0 0.00 0.00 0.00 84 1025.4
20260830165700 75 355 0.0 0.0 0.00 0.00 0.00 84 1025.4
20260830165552 75 355 0.0 0.0 0.00 0.00 0.00 85 1025.4
20260830165452 75 355 0.0 0.0 0.00 0.00 0.00 85 1025.4
20260830165351 75 350 0.0 0.0 0.00 0.00 0.00 85 1025.5
20260830165251 75 308 0.0 0.0 0.00 0.00 0.00 85 1025.5
20260830165149 75 307 0.0 0.0 0.00 0.00 0.00 84 1025.5
20260830165047 75 307 0.0 0.0 0.00 0.00 0.00 84 1025.5
20260830164945 75 307 0.0 0.0 0.00 0.00 0.00 84 1025.5
20260830164846 75 307 0.0 0.0 0.00 0.00 0.00 84 1025.6
20260830164747 75 307 0.0 0.0 0.00 0.00 0.00 84 1025.6
20260830164644 75 300 0.0 0.0 0.00 0.00 0.00 84 1025.6
20260830164540 75 336 0.0 0.0 0.00 0.00 0.00 85 1025.6
20260830164437 76 346 0.0 0.0 0.00 0.00 0.00 85 1025.6
20260830164337 76 329 0.0 0.0 0.00 0.00 0.00 85 1025.5
20260830164237 76 338 0.0 0.0 0.00 0.00 0.00 85 1025.5
20260830164137 75 338 0.0 0.0 0.00 0.00 0.00 85 1025.6
20260830164033 75 69 0.0 0.0 0.00 0.00 0.00 85 1025.5
20260830163931 75 70 0.0 0.0 0.00 0.00 0.00 85 1025.6
20260830163832 75 69 0.0 0.0 0.00 0.00 0.00 85 1025.6
20260830163729 75 67 0.0 0.0 0.00 0.00 0.00 86 1025.5